Time,TemperatureF,DewpointF,PressureIn,WindDirection,WindDirectionDegrees,WindSpeedMPH,WindSpeedGustMPH,Humidity,HourlyPrecipIn,Conditions,Clouds,dailyrainin,SoftwareType,DateUTC
2013-03-26 00:00:00,58.1,41.5,30.21,NNE,20,4.0,4.9,54,0.00,,,0.00,WUHU216HW,2013-03-26 04:00:00,
2013-03-26 00:05:00,57.9,41.3,30.21,NNE,23,3.1,5.3,54,0.00,,,0.00,WUHU216HW,2013-03-26 04:05:00,
2013-03-26 00:07:00,57.9,41.3,30.21,NNE,23,5.1,5.3,54,0.00,,,0.00,WUHU216HW,2013-03-26 04:07:00,
2013-03-26 00:10:00,57.9,41.8,30.21,NE,45,2.2,5.3,55,0.00,,,0.00,WUHU216HW,2013-03-26 04:10:00,
2013-03-26 00:11:00,57.9,41.8,30.21,NE,45,2.2,5.3,55,0.00,,,0.00,WUHU216HW,2013-03-26 04:11:00,
2013-03-26 00:12:00,57.9,41.8,30.21,NE,45,2.9,5.1,55,0.00,,,0.00,WUHU216HW,2013-03-26 04:12:00,
2013-03-26 00:13:00,57.9,41.8,30.21,NE,45,2.9,5.1,55,0.00,,,0.00,WUHU216HW,2013-03-26 04:13:00,
2013-03-26 00:15:00,57.7,41.6,30.21,NE,45,4.9,5.1,55,0.00,,,0.00,WUHU216HW,2013-03-26 04:15:00,
2013-03-26 00:16:00,57.7,41.6,30.21,NE,45,4.9,5.1,55,0.00,,,0.00,WUHU216HW,2013-03-26 04:16:00,
2013-03-26 00:18:00,57.7,41.6,30.21,NNE,23,2.2,4.9,55,0.00,,,0.00,WUHU216HW,2013-03-26 04:18:00,
2013-03-26 00:21:00,57.7,41.6,30.21,NNE,23,0.0,4.9,55,0.00,,,0.00,WUHU216HW,2013-03-26 04:21:00,
2013-03-26 00:23:00,57.9,42.2,30.21,NNE,23,2.9,4.9,56,0.00,,,0.00,WUHU216HW,2013-03-26 04:23:00,
2013-03-26 00:25:00,57.9,42.2,30.21,NE,45,2.4,2.9,56,0.00,,,0.00,WUHU216HW,2013-03-26 04:25:00,
2013-03-26 00:26:00,57.7,42.1,30.21,NE,45,1.5,2.9,56,0.00,,,0.00,WUHU216HW,2013-03-26 04:26:00,
2013-03-26 00:27:00,57.7,42.1,30.21,NE,45,1.5,2.9,56,0.00,,,0.00,WUHU216HW,2013-03-26 04:27:00,
2013-03-26 00:28:00,57.7,42.1,30.21,North,0,2.6,2.9,56,0.00,,,0.00,WUHU216HW,2013-03-26 04:28:00,
2013-03-26 00:30:00,57.7,42.1,30.21,NNE,23,1.1,2.9,56,0.00,,,0.00,WUHU216HW,2013-03-26 04:30:00,
2013-03-26 00:32:00,57.7,42.1,30.21,NNE,23,2.0,2.9,56,0.00,,,0.00,WUHU216HW,2013-03-26 04:32:00,
2013-03-26 00:33:00,57.7,42.1,30.21,NNE,23,2.0,2.6,56,0.00,,,0.00,WUHU216HW,2013-03-26 04:33:00,
2013-03-26 00:34:00,57.7,42.1,30.21,NNE,23,2.0,2.6,56,0.00,,,0.00,WUHU216HW,2013-03-26 04:34:00,
2013-03-26 00:35:00,57.7,42.1,30.21,NNE,12,3.1,3.3,56,0.00,,,0.00,WUHU216HW,2013-03-26 04:35:00,
2013-03-26 00:37:00,57.5,41.9,30.21,NNE,23,5.8,5.8,56,0.00,,,0.00,WUHU216HW,2013-03-26 04:37:00,
2013-03-26 00:38:00,57.5,41.9,30.21,NNE,23,5.0,5.8,56,0.00,,,0.00,WUHU216HW,2013-03-26 04:38:00,
2013-03-26 00:39:00,57.5,41.9,30.21,NNE,23,5.0,5.8,56,0.00,,,0.00,WUHU216HW,2013-03-26 04:39:00,
2013-03-26 00:40:00,57.5,41.9,30.21,NNE,23,3.3,5.8,56,0.00,,,0.00,WUHU216HW,2013-03-26 04:40:00,
2013-03-26 00:42:00,57.5,41.9,30.21,NNE,23,3.3,5.8,56,0.00,,,0.00,WUHU216HW,2013-03-26 04:42:00,
2013-03-26 00:43:00,57.5,41.9,30.21,North,0,2.2,5.8,56,0.00,,,0.00,WUHU216HW,2013-03-26 04:43:00,
2013-03-26 00:44:00,57.5,41.9,30.21,North,7,1.7,5.8,56,0.00,,,0.00,WUHU216HW,2013-03-26 04:44:00,
2013-03-26 00:46:00,57.5,41.9,30.21,North,0,6.7,6.7,56,0.00,,,0.00,WUHU216HW,2013-03-26 04:46:00,
2013-03-26 00:48:00,57.5,42.4,30.21,NNE,23,3.1,6.7,57,0.00,,,0.00,WUHU216HW,2013-03-26 04:48:00,
2013-03-26 00:49:00,57.3,42.2,30.21,NNE,23,2.2,6.7,57,0.00,,,0.00,WUHU216HW,2013-03-26 04:49:00,
2013-03-26 00:52:00,57.3,42.2,30.21,NNE,23,1.5,6.7,57,0.00,,,0.00,WUHU216HW,2013-03-26 04:52:00,
2013-03-26 00:53:00,57.3,42.2,30.21,NNE,23,1.5,6.7,57,0.00,,,0.00,WUHU216HW,2013-03-26 04:53:00,
2013-03-26 00:55:00,57.3,42.2,30.21,NNE,23,6.4,6.7,57,0.00,,,0.00,WUHU216HW,2013-03-26 04:55:00,
2013-03-26 00:56:00,57.3,42.2,30.21,North,1,6.1,6.4,57,0.00,,,0.00,WUHU216HW,2013-03-26 04:56:00,
2013-03-26 00:58:00,57.3,42.2,30.21,NNE,23,4.2,6.4,57,0.00,,,0.00,WUHU216HW,2013-03-26 04:58:00,
2013-03-26 01:00:00,57.3,42.2,30.21,NNE,23,1.5,6.4,57,0.00,,,0.00,WUHU216HW,2013-03-26 05:00:00,
2013-03-26 01:01:00,57.3,42.2,30.21,NNE,23,1.5,6.4,57,0.00,,,0.00,WUHU216HW,2013-03-26 05:01:00,
2013-03-26 01:02:00,57.3,42.2,30.21,NNE,23,1.5,6.4,57,0.00,,,0.00,WUHU216HW,2013-03-26 05:02:00,
2013-03-26 01:03:00,57.3,42.2,30.21,North,0,2.6,6.4,57,0.00,,,0.00,WUHU216HW,2013-03-26 05:03:00,
2013-03-26 01:05:00,57.3,42.7,30.21,NNE,23,0.0,5.1,58,0.00,,,0.00,WUHU216HW,2013-03-26 05:05:00,
2013-03-26 01:07:00,57.3,42.7,30.21,NNE,23,1.1,4.2,58,0.00,,,0.00,WUHU216HW,2013-03-26 05:07:00,
2013-03-26 01:08:00,57.3,42.7,30.21,NNE,23,3.6,6.2,58,0.00,,,0.00,WUHU216HW,2013-03-26 05:08:00,
2013-03-26 01:09:00,57.3,42.7,30.21,NNE,23,1.1,6.2,58,0.00,,,0.00,WUHU216HW,2013-03-26 05:09:00,
2013-03-26 01:10:00,57.3,42.7,30.21,NW,315,0.0,6.2,58,0.00,,,0.00,WUHU216HW,2013-03-26 05:10:00,
2013-03-26 01:12:00,57.3,42.7,30.21,North,0,0.0,6.2,58,0.00,,,0.00,WUHU216HW,2013-03-26 05:12:00,
2013-03-26 01:14:00,57.3,42.7,30.21,North,0,0.0,6.2,58,0.00,,,0.00,WUHU216HW,2013-03-26 05:14:00,
2013-03-26 01:15:00,57.3,42.7,30.21,NNE,23,3.7,6.2,58,0.00,,,0.00,WUHU216HW,2013-03-26 05:15:00,
2013-03-26 01:17:00,57.3,42.7,30.21,North,0,2.4,3.8,58,0.00,,,0.00,WUHU216HW,2013-03-26 05:17:00,
2013-03-26 01:19:00,57.3,42.7,30.21,NNE,17,5.3,8.2,58,0.00,,,0.00,WUHU216HW,2013-03-26 05:19:00,
2013-03-26 01:21:00,57.3,42.7,30.21,North,0,1.4,8.2,58,0.00,,,0.00,WUHU216HW,2013-03-26 05:21:00,
2013-03-26 01:23:00,57.3,42.7,30.21,North,0,2.9,8.2,58,0.00,,,0.00,WUHU216HW,2013-03-26 05:23:00,
2013-03-26 01:25:00,57.3,42.7,30.21,NNE,23,1.5,8.2,58,0.00,,,0.00,WUHU216HW,2013-03-26 05:25:00,
2013-03-26 01:26:00,57.3,42.7,30.21,North,7,2.3,8.2,58,0.00,,,0.00,WUHU216HW,2013-03-26 05:26:00,
2013-03-26 01:29:00,57.3,42.7,30.21,North,0,4.4,4.4,58,0.00,,,0.00,WUHU216HW,2013-03-26 05:29:00,
2013-03-26 01:30:00,57.3,42.7,30.21,NNE,26,2.6,4.4,58,0.00,,,0.00,WUHU216HW,2013-03-26 05:30:00,
2013-03-26 01:31:00,57.3,42.7,30.21,NNE,26,2.6,4.4,58,0.00,,,0.00,WUHU216HW,2013-03-26 05:31:00,
2013-03-26 01:32:00,57.3,42.7,30.21,North,0,3.1,4.4,58,0.00,,,0.00,WUHU216HW,2013-03-26 05:32:00,
2013-03-26 01:34:00,57.3,42.7,30.21,NNE,23,3.8,4.4,58,0.00,,,0.00,WUHU216HW,2013-03-26 05:34:00,
2013-03-26 01:36:00,57.3,43.2,30.21,NNE,23,3.8,4.4,59,0.00,,,0.00,WUHU216HW,2013-03-26 05:36:00,
2013-03-26 01:37:00,57.3,43.2,30.21,NNE,23,2.0,4.4,59,0.00,,,0.00,WUHU216HW,2013-03-26 05:37:00,
2013-03-26 01:39:00,57.3,43.2,30.21,NNE,23,3.3,3.8,59,0.00,,,0.00,WUHU216HW,2013-03-26 05:39:00,
2013-03-26 01:42:00,57.3,43.2,30.21,NNE,23,3.3,3.8,58,0.00,,,0.00,WUHU216HW,2013-03-26 05:42:00,
2013-03-26 01:45:00,57.3,43.2,30.21,NNE,16,3.2,4.4,59,0.00,,,0.00,WUHU216HW,2013-03-26 05:45:00,
2013-03-26 01:47:00,57.3,43.2,30.21,NE,45,1.8,4.4,59,0.00,,,0.00,WUHU216HW,2013-03-26 05:47:00,
2013-03-26 01:48:00,57.3,43.2,30.21,NE,45,1.8,4.4,59,0.00,,,0.00,WUHU216HW,2013-03-26 05:48:00,
2013-03-26 01:50:00,57.3,43.2,30.21,North,0,5.3,5.3,59,0.00,,,0.00,WUHU216HW,2013-03-26 05:50:00,
2013-03-26 01:53:00,57.3,43.0,30.21,North,0,3.5,5.3,59,0.00,,,0.00,WUHU216HW,2013-03-26 05:53:00,
2013-03-26 01:54:00,57.3,43.0,30.21,North,0,3.5,5.3,59,0.00,,,0.00,WUHU216HW,2013-03-26 05:54:00,
2013-03-26 01:55:00,57.2,43.0,30.21,NNE,23,0.0,5.3,59,0.00,,,0.00,WUHU216HW,2013-03-26 05:55:00,
2013-03-26 01:59:00,57.0,42.8,30.21,NW,315,4.0,5.3,59,0.00,,,0.00,WUHU216HW,2013-03-26 05:59:00,
2013-03-26 02:00:00,57.0,42.8,30.21,NNE,23,1.3,4.0,59,0.00,,,0.00,WUHU216HW,2013-03-26 06:00:00,
2013-03-26 02:04:00,57.0,43.3,30.21,NE,45,4.0,4.0,60,0.00,,,0.00,WUHU216HW,2013-03-26 06:04:00,
2013-03-26 02:05:00,57.0,43.3,30.21,NE,45,4.0,4.0,60,0.00,,,0.00,WUHU216HW,2013-03-26 06:05:00,
2013-03-26 02:06:00,57.0,43.3,30.21,NE,45,4.0,4.0,60,0.00,,,0.00,WUHU216HW,2013-03-26 06:06:00,
2013-03-26 02:10:00,57.0,43.3,30.21,NNE,23,0.0,4.0,60,0.00,,,0.00,WUHU216HW,2013-03-26 06:10:00,
2013-03-26 02:11:00,57.0,43.3,30.21,NNE,23,0.8,4.0,60,0.00,,,0.00,WUHU216HW,2013-03-26 06:11:00,
2013-03-26 02:12:00,57.0,43.3,30.21,NNE,23,1.1,4.0,60,0.00,,,0.00,WUHU216HW,2013-03-26 06:12:00,
2013-03-26 02:15:00,57.0,43.3,30.21,NNE,23,0.0,1.1,60,0.00,,,0.00,WUHU216HW,2013-03-26 06:15:00,
2013-03-26 02:16:00,57.0,43.3,30.21,NNE,23,0.0,1.1,60,0.00,,,0.00,WUHU216HW,2013-03-26 06:16:00,
2013-03-26 02:18:00,57.0,43.3,30.21,North,8,2.5,3.3,60,0.00,,,0.00,WUHU216HW,2013-03-26 06:18:00,
2013-03-26 02:21:00,57.0,43.3,30.21,NNE,23,2.0,3.3,60,0.00,,,0.00,WUHU216HW,2013-03-26 06:21:00,
2013-03-26 02:22:00,57.0,43.3,30.21,NNE,23,2.0,3.3,60,0.00,,,0.00,WUHU216HW,2013-03-26 06:22:00,
2013-03-26 02:23:00,57.0,43.3,30.21,NNE,23,1.7,3.3,60,0.00,,,0.00,WUHU216HW,2013-03-26 06:23:00,
2013-03-26 02:27:00,56.8,43.1,30.21,NNE,23,0.0,3.3,60,0.00,,,0.00,WUHU216HW,2013-03-26 06:27:00,
2013-03-26 02:28:00,56.8,43.1,30.21,NNE,23,4.4,4.4,60,0.00,,,0.00,WUHU216HW,2013-03-26 06:28:00,
2013-03-26 02:33:00,56.8,43.5,30.21,NNE,23,2.6,4.4,61,0.00,,,0.00,WUHU216HW,2013-03-26 06:33:00,
2013-03-26 02:34:00,56.8,43.5,30.21,NNE,23,3.1,4.4,61,0.00,,,0.00,WUHU216HW,2013-03-26 06:34:00,
2013-03-26 02:35:00,56.8,43.5,30.21,NNE,23,3.1,4.4,61,0.00,,,0.00,WUHU216HW,2013-03-26 06:35:00,
2013-03-26 02:38:00,56.8,43.5,30.21,NE,45,1.1,3.5,61,0.00,,,0.00,WUHU216HW,2013-03-26 06:38:00,
2013-03-26 02:39:00,56.8,43.5,30.21,NE,45,1.1,3.5,61,0.00,,,0.00,WUHU216HW,2013-03-26 06:39:00,
2013-03-26 02:40:00,56.8,43.5,30.21,North,0,0.0,3.5,61,0.00,,,0.00,WUHU216HW,2013-03-26 06:40:00,
2013-03-26 02:41:00,56.8,43.5,30.21,North,0,0.0,3.5,61,0.00,,,0.00,WUHU216HW,2013-03-26 06:41:00,
2013-03-26 02:43:00,56.8,43.5,30.21,North,0,0.0,3.5,61,0.00,,,0.00,WUHU216HW,2013-03-26 06:43:00,
2013-03-26 02:44:00,56.8,43.5,30.21,North,0,0.0,3.5,61,0.00,,,0.00,WUHU216HW,2013-03-26 06:44:00,
2013-03-26 02:46:00,56.6,43.3,30.22,NNE,23,2.7,3.1,61,0.00,,,0.00,WUHU216HW,2013-03-26 06:46:00,
2013-03-26 02:47:00,56.6,43.3,30.21,NNE,23,2.2,3.1,61,0.00,,,0.00,WUHU216HW,2013-03-26 06:47:00,
2013-03-26 02:50:00,56.6,43.3,30.21,North,0,0.0,3.1,61,0.00,,,0.00,WUHU216HW,2013-03-26 06:50:00,
2013-03-26 02:51:00,56.6,43.3,30.21,NNE,23,0.0,3.1,61,0.00,,,0.00,WUHU216HW,2013-03-26 06:51:00,
2013-03-26 02:53:00,56.6,43.3,30.21,NNE,23,0.0,3.1,61,0.00,,,0.00,WUHU216HW,2013-03-26 06:53:00,
2013-03-26 02:55:00,56.6,43.5,30.22,NNE,23,0.0,3.1,62,0.00,,,0.00,WUHU216HW,2013-03-26 06:55:00,
2013-03-26 02:56:00,56.4,43.5,30.21,NNE,23,0.0,0.0,62,0.00,,,0.00,WUHU216HW,2013-03-26 06:56:00,
2013-03-26 02:57:00,56.4,43.5,30.21,NNE,23,0.0,0.0,62,0.00,,,0.00,WUHU216HW,2013-03-26 06:57:00,
2013-03-26 02:58:00,56.4,43.5,30.21,NNE,23,0.0,0.0,62,0.00,,,0.00,WUHU216HW,2013-03-26 06:58:00,
2013-03-26 03:00:00,56.4,43.5,30.21,NNE,23,0.0,0.0,62,0.00,,,0.00,WUHU216HW,2013-03-26 07:00:00,
2013-03-26 03:02:00,56.4,43.5,30.21,NNE,23,1.3,1.3,62,0.00,,,0.00,WUHU216HW,2013-03-26 07:02:00,
2013-03-26 03:03:00,56.4,43.5,30.21,NNE,23,1.3,1.3,62,0.00,,,0.00,WUHU216HW,2013-03-26 07:03:00,
2013-03-26 03:06:00,56.4,43.5,30.21,NNE,23,0.0,1.3,62,0.00,,,0.00,WUHU216HW,2013-03-26 07:06:00,
2013-03-26 03:08:00,56.4,43.5,30.22,NNE,23,0.0,1.3,62,0.00,,,0.00,WUHU216HW,2013-03-26 07:08:00,
2013-03-26 03:09:00,56.4,43.5,30.22,NNE,23,0.0,1.3,62,0.00,,,0.00,WUHU216HW,2013-03-26 07:09:00,
2013-03-26 03:11:00,56.4,43.5,30.21,NNE,23,0.0,1.3,62,0.00,,,0.00,WUHU216HW,2013-03-26 07:11:00,
2013-03-26 03:13:00,56.4,43.5,30.21,NNE,23,0.8,4.2,62,0.00,,,0.00,WUHU216HW,2013-03-26 07:13:00,
2013-03-26 03:14:00,56.4,43.5,30.21,NNE,23,0.8,4.2,62,0.00,,,0.00,WUHU216HW,2013-03-26 07:14:00,
2013-03-26 03:17:00,56.4,43.5,30.22,NE,45,2.3,4.2,62,0.00,,,0.00,WUHU216HW,2013-03-26 07:17:00,
2013-03-26 03:18:00,56.4,43.5,30.22,NNE,23,2.4,4.2,62,0.00,,,0.00,WUHU216HW,2013-03-26 07:18:00,
2013-03-26 03:19:00,56.4,43.5,30.22,NNE,23,1.1,4.2,62,0.00,,,0.00,WUHU216HW,2013-03-26 07:19:00,
2013-03-26 03:22:00,56.4,43.5,30.21,NNE,23,1.7,3.1,62,0.00,,,0.00,WUHU216HW,2013-03-26 07:22:00,
2013-03-26 03:23:00,56.4,43.5,30.21,NNE,23,3.3,3.3,62,0.00,,,0.00,WUHU216HW,2013-03-26 07:23:00,
2013-03-26 03:24:00,56.4,43.5,30.21,NNE,23,3.3,3.3,62,0.00,,,0.00,WUHU216HW,2013-03-26 07:24:00,
2013-03-26 03:25:00,56.4,43.5,30.21,NNE,23,3.3,3.3,62,0.00,,,0.00,WUHU216HW,2013-03-26 07:25:00,
2013-03-26 03:28:00,56.3,43.4,30.21,North,0,2.0,4.0,62,0.00,,,0.00,WUHU216HW,2013-03-26 07:28:00,
2013-03-26 03:29:00,56.3,43.4,30.21,North,0,3.1,4.0,62,0.00,,,0.00,WUHU216HW,2013-03-26 07:29:00,
2013-03-26 03:30:00,56.3,43.4,30.21,North,0,2.4,4.0,62,0.00,,,0.00,WUHU216HW,2013-03-26 07:30:00,
2013-03-26 03:31:00,56.3,43.4,30.21,North,0,2.4,4.0,62,0.00,,,0.00,WUHU216HW,2013-03-26 07:31:00,
2013-03-26 03:34:00,56.3,43.8,30.21,NNW,338,3.1,4.0,63,0.00,,,0.00,WUHU216HW,2013-03-26 07:34:00,
2013-03-26 03:36:00,56.3,43.8,30.21,NNW,338,3.1,3.3,63,0.00,,,0.00,WUHU216HW,2013-03-26 07:36:00,
2013-03-26 03:39:00,56.3,43.8,30.21,NNW,338,0.0,3.1,63,0.00,,,0.00,WUHU216HW,2013-03-26 07:39:00,
2013-03-26 03:40:00,56.3,43.8,30.21,NNW,338,0.0,3.1,63,0.00,,,0.00,WUHU216HW,2013-03-26 07:40:00,
2013-03-26 03:41:00,56.3,43.8,30.21,NNW,338,0.8,3.1,63,0.00,,,0.00,WUHU216HW,2013-03-26 07:41:00,
2013-03-26 03:42:00,56.3,43.8,30.21,NNW,338,0.8,3.1,63,0.00,,,0.00,WUHU216HW,2013-03-26 07:42:00,
2013-03-26 03:45:00,56.3,43.8,30.21,NNW,338,0.0,1.1,63,0.00,,,0.00,WUHU216HW,2013-03-26 07:45:00,
2013-03-26 03:47:00,56.3,43.8,30.21,North,0,5.5,5.5,63,0.00,,,0.00,WUHU216HW,2013-03-26 07:47:00,
2013-03-26 03:50:00,56.3,43.8,30.21,North,0,1.5,5.5,63,0.00,,,0.00,WUHU216HW,2013-03-26 07:50:00,
2013-03-26 03:51:00,56.3,43.8,30.21,North,0,1.5,5.5,63,0.00,,,0.00,WUHU216HW,2013-03-26 07:51:00,
2013-03-26 03:52:00,56.1,43.8,30.21,NNE,23,4.9,5.5,63,0.00,,,0.00,WUHU216HW,2013-03-26 07:52:00,
2013-03-26 03:53:00,56.1,43.6,30.21,NNE,23,4.2,5.5,63,0.00,,,0.00,WUHU216HW,2013-03-26 07:53:00,
2013-03-26 03:55:00,56.3,43.8,30.21,NNE,23,3.2,5.5,63,0.00,,,0.00,WUHU216HW,2013-03-26 07:55:00,
2013-03-26 03:58:00,56.1,44.0,30.21,North,6,4.3,6.2,64,0.00,,,0.00,WUHU216HW,2013-03-26 07:58:00,
2013-03-26 03:59:00,56.1,44.0,30.21,NNE,23,4.0,6.2,64,0.00,,,0.00,WUHU216HW,2013-03-26 07:59:00,
2013-03-26 04:00:00,56.1,44.0,30.21,NNE,23,2.8,6.2,64,0.00,,,0.00,WUHU216HW,2013-03-26 08:00:00,
2013-03-26 04:03:00,56.1,44.0,30.21,North,0,1.3,6.2,64,0.00,,,0.00,WUHU216HW,2013-03-26 08:03:00,
2013-03-26 04:04:00,56.1,44.0,30.21,NE,45,2.4,6.2,64,0.00,,,0.00,WUHU216HW,2013-03-26 08:04:00,
2013-03-26 04:06:00,56.1,44.0,30.21,NE,45,5.3,6.2,64,0.00,,,0.00,WUHU216HW,2013-03-26 08:06:00,
2013-03-26 04:08:00,55.9,43.8,30.21,NNE,23,2.5,5.3,64,0.00,,,0.00,WUHU216HW,2013-03-26 08:08:00,
2013-03-26 04:09:00,55.9,43.8,30.21,NNE,23,1.5,5.3,64,0.00,,,0.00,WUHU216HW,2013-03-26 08:09:00,
2013-03-26 04:10:00,55.9,43.8,30.21,NNE,23,2.4,5.3,64,0.00,,,0.00,WUHU216HW,2013-03-26 08:10:00,
2013-03-26 04:12:00,55.9,43.8,30.21,NNE,23,2.4,5.3,64,0.00,,,0.00,WUHU216HW,2013-03-26 08:12:00,
2013-03-26 04:15:00,55.9,43.8,30.21,North,0,2.6,5.3,64,0.00,,,0.00,WUHU216HW,2013-03-26 08:15:00,
2013-03-26 04:16:00,55.9,43.8,30.21,North,0,0.0,3.5,64,0.00,,,0.00,WUHU216HW,2013-03-26 08:16:00,
2013-03-26 04:17:00,55.9,43.8,30.21,North,0,0.0,2.6,64,0.00,,,0.00,WUHU216HW,2013-03-26 08:17:00,
2013-03-26 04:20:00,55.9,43.8,30.21,North,0,3.3,3.3,64,0.00,,,0.00,WUHU216HW,2013-03-26 08:20:00,
2013-03-26 04:21:00,55.9,43.8,30.21,North,0,3.3,3.3,64,0.00,,,0.00,WUHU216HW,2013-03-26 08:21:00,
2013-03-26 04:22:00,55.9,43.8,30.21,North,0,0.8,3.3,64,0.00,,,0.00,WUHU216HW,2013-03-26 08:22:00,
2013-03-26 04:26:00,55.9,43.8,30.21,NNE,23,2.4,3.3,64,0.00,,,0.00,WUHU216HW,2013-03-26 08:26:00,
2013-03-26 04:27:00,55.9,43.8,30.21,NNE,23,2.4,3.3,64,0.00,,,0.00,WUHU216HW,2013-03-26 08:27:00,
2013-03-26 04:28:00,55.9,44.2,30.22,NNE,23,2.4,3.3,65,0.00,,,0.00,WUHU216HW,2013-03-26 08:28:00,
2013-03-26 04:32:00,55.9,44.2,30.21,NNE,23,0.8,3.1,65,0.00,,,0.00,WUHU216HW,2013-03-26 08:32:00,
2013-03-26 04:33:00,55.9,43.8,30.21,North,0,0.0,3.1,64,0.00,,,0.00,WUHU216HW,2013-03-26 08:33:00,
2013-03-26 04:37:00,55.9,44.2,30.22,NW,315,0.0,4.9,65,0.00,,,0.00,WUHU216HW,2013-03-26 08:37:00,
2013-03-26 04:38:00,55.9,44.2,30.22,NNW,338,4.0,4.9,65,0.00,,,0.00,WUHU216HW,2013-03-26 08:38:00,
2013-03-26 04:39:00,55.9,44.2,30.22,NNW,338,4.0,4.9,65,0.00,,,0.00,WUHU216HW,2013-03-26 08:39:00,
2013-03-26 04:43:00,55.7,44.1,30.22,NNE,23,0.0,4.9,65,0.00,,,0.00,WUHU216HW,2013-03-26 08:43:00,
2013-03-26 04:44:00,55.7,44.1,30.22,NNE,23,0.0,4.9,65,0.00,,,0.00,WUHU216HW,2013-03-26 08:44:00,
2013-03-26 04:48:00,55.7,44.1,30.21,NNE,23,0.0,0.8,65,0.00,,,0.00,WUHU216HW,2013-03-26 08:48:00,
2013-03-26 04:49:00,55.7,44.1,30.21,NNE,23,0.0,0.8,65,0.00,,,0.00,WUHU216HW,2013-03-26 08:49:00,
2013-03-26 04:54:00,55.5,43.9,30.22,NNE,23,0.0,0.0,65,0.00,,,0.00,WUHU216HW,2013-03-26 08:54:00,
2013-03-26 04:55:00,55.5,43.9,30.22,NNE,23,0.0,0.0,65,0.00,,,0.00,WUHU216HW,2013-03-26 08:55:00,
2013-03-26 04:56:00,55.5,43.9,30.22,NNE,23,0.0,0.0,65,0.00,,,0.00,WUHU216HW,2013-03-26 08:56:00,
2013-03-26 05:00:00,55.5,43.9,30.22,NNE,23,0.0,0.0,65,0.00,,,0.00,WUHU216HW,2013-03-26 09:00:00,
2013-03-26 05:02:00,55.4,43.7,30.21,NNE,23,0.0,0.0,65,0.00,,,0.00,WUHU216HW,2013-03-26 09:02:00,
2013-03-26 05:05:00,55.4,44.2,30.22,NNE,23,0.0,0.0,66,0.00,,,0.00,WUHU216HW,2013-03-26 09:05:00,
2013-03-26 05:06:00,55.4,44.2,30.22,NNE,23,0.0,0.0,66,0.00,,,0.00,WUHU216HW,2013-03-26 09:06:00,
2013-03-26 05:07:00,55.4,44.2,30.22,NNE,23,0.0,0.0,66,0.00,,,0.00,WUHU216HW,2013-03-26 09:07:00,
2013-03-26 05:10:00,55.2,44.0,30.22,NNE,23,0.0,0.6,66,0.00,,,0.00,WUHU216HW,2013-03-26 09:10:00,
2013-03-26 05:12:00,55.2,44.0,30.22,NNE,23,0.0,0.6,66,0.00,,,0.00,WUHU216HW,2013-03-26 09:12:00,
2013-03-26 05:13:00,55.2,44.0,30.22,NNE,23,0.0,0.6,66,0.00,,,0.00,WUHU216HW,2013-03-26 09:13:00,
2013-03-26 05:16:00,55.2,44.0,30.22,NNE,23,0.8,0.8,66,0.00,,,0.00,WUHU216HW,2013-03-26 09:16:00,
2013-03-26 05:17:00,55.2,44.0,30.22,NNE,23,0.8,0.8,66,0.00,,,0.00,WUHU216HW,2013-03-26 09:17:00,
2013-03-26 05:18:00,55.2,44.0,30.22,NNE,23,0.0,0.8,66,0.00,,,0.00,WUHU216HW,2013-03-26 09:18:00,
2013-03-26 05:21:00,55.2,44.0,30.22,NNE,23,1.1,1.1,66,0.00,,,0.00,WUHU216HW,2013-03-26 09:21:00,
2013-03-26 05:22:00,55.0,43.8,30.22,NNE,23,0.0,1.1,66,0.00,,,0.00,WUHU216HW,2013-03-26 09:22:00,
2013-03-26 05:23:00,55.0,43.8,30.22,NNE,23,0.0,1.1,66,0.00,,,0.00,WUHU216HW,2013-03-26 09:23:00,
2013-03-26 05:24:00,55.0,43.8,30.22,NNE,23,0.0,1.1,66,0.00,,,0.00,WUHU216HW,2013-03-26 09:24:00,
2013-03-26 05:26:00,55.0,43.8,30.22,NNE,23,0.0,1.1,66,0.00,,,0.00,WUHU216HW,2013-03-26 09:26:00,
2013-03-26 05:28:00,55.0,43.8,30.22,NNE,23,0.0,1.1,66,0.00,,,0.00,WUHU216HW,2013-03-26 09:28:00,
2013-03-26 05:29:00,55.0,43.8,30.22,NNE,23,0.0,1.1,66,0.00,,,0.00,WUHU216HW,2013-03-26 09:29:00,
2013-03-26 05:32:00,55.0,43.8,30.22,NNE,23,0.0,0.0,66,0.00,,,0.00,WUHU216HW,2013-03-26 09:32:00,
2013-03-26 05:33:00,54.8,43.6,30.22,NNE,23,0.0,0.0,66,0.00,,,0.00,WUHU216HW,2013-03-26 09:33:00,
2013-03-26 05:34:00,54.8,43.6,30.22,NNE,23,0.0,0.0,66,0.00,,,0.00,WUHU216HW,2013-03-26 09:34:00,
2013-03-26 05:37:00,54.6,43.9,30.22,NNE,23,0.0,0.0,66,0.00,,,0.00,WUHU216HW,2013-03-26 09:37:00,
2013-03-26 05:39:00,54.6,43.9,30.22,NNE,23,0.0,0.0,67,0.00,,,0.00,WUHU216HW,2013-03-26 09:39:00,
2013-03-26 05:40:00,54.6,43.9,30.22,NNE,23,0.0,0.0,67,0.00,,,0.00,WUHU216HW,2013-03-26 09:40:00,
2013-03-26 05:42:00,54.6,43.9,30.22,NNE,23,0.0,0.0,67,0.00,,,0.00,WUHU216HW,2013-03-26 09:42:00,
2013-03-26 05:44:00,54.6,43.9,30.22,NNE,23,0.0,0.0,67,0.00,,,0.00,WUHU216HW,2013-03-26 09:44:00,
2013-03-26 05:45:00,54.6,43.9,30.22,NNE,23,0.0,0.0,67,0.00,,,0.00,WUHU216HW,2013-03-26 09:45:00,
2013-03-26 05:48:00,54.6,43.9,30.22,NNE,23,0.0,0.0,67,0.00,,,0.00,WUHU216HW,2013-03-26 09:48:00,
2013-03-26 05:49:00,54.5,43.7,30.22,NNW,338,0.0,0.0,67,0.00,,,0.00,WUHU216HW,2013-03-26 09:49:00,
2013-03-26 05:50:00,54.5,43.7,30.22,North,0,2.9,2.9,67,0.00,,,0.00,WUHU216HW,2013-03-26 09:50:00,
2013-03-26 05:54:00,54.3,43.5,30.23,NNE,23,2.2,2.9,67,0.00,,,0.00,WUHU216HW,2013-03-26 09:54:00,
2013-03-26 05:55:00,54.3,43.5,30.23,NE,39,1.8,2.9,67,0.00,,,0.00,WUHU216HW,2013-03-26 09:55:00,
2013-03-26 05:56:00,54.3,43.5,30.23,ENE,68,1.3,2.9,67,0.00,,,0.00,WUHU216HW,2013-03-26 09:56:00,
2013-03-26 06:00:00,54.3,43.5,30.23,NNE,23,0.2,2.9,67,0.00,,,0.00,WUHU216HW,2013-03-26 10:00:00,
2013-03-26 06:01:00,54.3,43.5,30.23,NNE,23,3.8,3.8,67,0.00,,,0.00,WUHU216HW,2013-03-26 10:01:00,
2013-03-26 06:05:00,54.3,43.9,30.23,NNE,23,2.2,3.8,68,0.00,,,0.00,WUHU216HW,2013-03-26 10:05:00,
2013-03-26 06:06:00,54.1,43.7,30.24,ENE,68,2.6,3.8,68,0.00,,,0.00,WUHU216HW,2013-03-26 10:06:00,
2013-03-26 06:08:00,54.1,43.7,30.24,NNE,23,2.0,3.8,68,0.00,,,0.00,WUHU216HW,2013-03-26 10:08:00,
2013-03-26 06:10:00,54.1,43.7,30.24,NNE,23,2.0,3.8,68,0.00,,,0.00,WUHU216HW,2013-03-26 10:10:00,
2013-03-26 06:13:00,54.1,43.7,30.24,NNE,23,1.7,2.6,68,0.00,,,0.00,WUHU216HW,2013-03-26 10:13:00,
2013-03-26 06:15:00,54.1,43.7,30.24,NNE,23,3.5,3.5,68,0.00,,,0.00,WUHU216HW,2013-03-26 10:15:00,
2013-03-26 06:19:00,53.9,43.6,30.24,NNE,12,1.9,3.5,68,0.00,,,0.00,WUHU216HW,2013-03-26 10:19:00,
2013-03-26 06:20:00,53.9,43.6,30.24,NNE,23,2.4,3.5,68,0.00,,,0.00,WUHU216HW,2013-03-26 10:20:00,
2013-03-26 06:21:00,53.9,43.6,30.24,NNE,23,2.4,3.5,68,0.00,,,0.00,WUHU216HW,2013-03-26 10:21:00,
2013-03-26 06:24:00,53.9,43.6,30.24,NNE,23,3.1,3.5,68,0.00,,,0.00,WUHU216HW,2013-03-26 10:24:00,
2013-03-26 06:25:00,53.9,43.2,30.25,North,354,4.0,5.1,67,0.00,,,0.00,WUHU216HW,2013-03-26 10:25:00,
2013-03-26 06:26:00,53.9,43.2,30.25,North,354,4.0,5.1,67,0.00,,,0.00,WUHU216HW,2013-03-26 10:26:00,
2013-03-26 06:29:00,53.9,43.2,30.24,NE,51,3.9,5.1,67,0.00,,,0.00,WUHU216HW,2013-03-26 10:29:00,
2013-03-26 06:30:00,53.9,43.2,30.24,NNE,23,2.9,5.1,67,0.00,,,0.00,WUHU216HW,2013-03-26 10:30:00,
2013-03-26 06:31:00,53.9,42.8,30.25,NNE,23,0.0,5.1,66,0.00,,,0.00,WUHU216HW,2013-03-26 10:31:00,
2013-03-26 06:34:00,53.9,42.8,30.25,NNE,23,4.6,4.9,66,0.00,,,0.00,WUHU216HW,2013-03-26 10:34:00,
2013-03-26 06:35:00,53.9,42.8,30.25,NNE,23,4.6,4.9,66,0.00,,,0.00,WUHU216HW,2013-03-26 10:35:00,
2013-03-26 06:37:00,53.9,42.4,30.25,NNE,23,2.2,4.6,65,0.00,,,0.00,WUHU216HW,2013-03-26 10:37:00,
2013-03-26 06:40:00,53.7,42.2,30.25,ENE,68,2.9,4.6,65,0.00,,,0.00,WUHU216HW,2013-03-26 10:40:00,
2013-03-26 06:41:00,53.7,42.2,30.25,NE,45,0.0,4.6,65,0.00,,,0.00,WUHU216HW,2013-03-26 10:41:00,
2013-03-26 06:42:00,53.7,42.2,30.26,NNE,23,0.0,4.6,65,0.00,,,0.00,WUHU216HW,2013-03-26 10:42:00,
2013-03-26 06:43:00,53.7,42.2,30.26,NNE,23,0.0,4.6,65,0.00,,,0.00,WUHU216HW,2013-03-26 10:43:00,
2013-03-26 06:45:00,53.7,42.2,30.26,NE,45,2.0,3.8,64,0.00,,,0.00,WUHU216HW,2013-03-26 10:45:00,
2013-03-26 06:46:00,53.7,42.2,30.26,NE,45,2.0,3.8,64,0.00,,,0.00,WUHU216HW,2013-03-26 10:46:00,
2013-03-26 06:47:00,53.7,41.8,30.26,NE,45,4.0,4.0,64,0.00,,,0.00,WUHU216HW,2013-03-26 10:47:00,
2013-03-26 06:50:00,53.7,41.8,30.26,NE,54,3.3,4.0,64,0.00,,,0.00,WUHU216HW,2013-03-26 10:50:00,
2013-03-26 06:52:00,53.7,41.8,30.26,NNE,23,3.1,4.0,64,0.00,,,0.00,WUHU216HW,2013-03-26 10:52:00,
2013-03-26 06:53:00,53.7,41.8,30.26,NNE,23,3.1,4.0,64,0.00,,,0.00,WUHU216HW,2013-03-26 10:53:00,
2013-03-26 06:55:00,53.6,41.6,30.26,NNE,23,3.8,4.0,64,0.00,,,0.00,WUHU216HW,2013-03-26 10:55:00,
2013-03-26 06:56:00,53.4,41.1,30.26,NNE,23,2.3,4.0,63,0.00,,,0.00,WUHU216HW,2013-03-26 10:56:00,
2013-03-26 06:57:00,53.4,41.1,30.26,NNE,23,1.1,4.0,63,0.00,,,0.00,WUHU216HW,2013-03-26 10:57:00,
2013-03-26 06:59:00,53.4,41.1,30.26,NNE,23,1.7,3.8,63,0.00,,,0.00,WUHU216HW,2013-03-26 10:59:00,
2013-03-26 07:00:00,53.4,41.1,30.26,NNE,23,1.7,3.8,63,0.00,,,0.00,WUHU216HW,2013-03-26 11:00:00,
2013-03-26 07:01:00,53.4,41.1,30.26,NNE,23,4.4,4.4,62,0.00,,,0.00,WUHU216HW,2013-03-26 11:01:00,
2013-03-26 07:05:00,53.4,40.7,30.26,NNE,23,0.0,4.4,62,0.00,,,0.00,WUHU216HW,2013-03-26 11:05:00,
2013-03-26 07:07:00,53.4,40.7,30.26,ENE,68,0.0,4.4,62,0.00,,,0.00,WUHU216HW,2013-03-26 11:07:00,
2013-03-26 07:10:00,53.2,40.5,30.26,NNE,23,1.5,4.4,62,0.00,,,0.00,WUHU216HW,2013-03-26 11:10:00,
2013-03-26 07:11:00,53.2,40.5,30.26,NNE,23,1.5,4.4,62,0.00,,,0.00,WUHU216HW,2013-03-26 11:11:00,
2013-03-26 07:12:00,53.2,40.5,30.26,NNE,23,2.2,3.1,62,0.00,,,0.00,WUHU216HW,2013-03-26 11:12:00,
2013-03-26 07:15:00,53.2,40.1,30.26,NNE,23,1.2,2.2,61,0.00,,,0.00,WUHU216HW,2013-03-26 11:15:00,
2013-03-26 07:16:00,53.2,40.1,30.26,NNE,23,1.1,2.2,61,0.00,,,0.00,WUHU216HW,2013-03-26 11:16:00,
2013-03-26 07:18:00,53.2,40.1,30.26,NNE,23,1.1,2.2,61,0.00,,,0.00,WUHU216HW,2013-03-26 11:18:00,
2013-03-26 07:20:00,53.2,40.1,30.27,NNE,23,2.9,2.9,61,0.00,,,0.00,WUHU216HW,2013-03-26 11:20:00,
2013-03-26 07:21:00,53.2,40.1,30.27,NNE,23,2.5,2.9,61,0.00,,,0.00,WUHU216HW,2013-03-26 11:21:00,
2013-03-26 07:23:00,53.2,39.9,30.27,NNE,23,2.4,2.9,61,0.00,,,0.00,WUHU216HW,2013-03-26 11:23:00,
2013-03-26 07:26:00,52.8,39.7,30.27,NNE,23,1.4,2.9,61,0.00,,,0.00,WUHU216HW,2013-03-26 11:26:00,
2013-03-26 07:28:00,52.8,39.7,30.27,NNE,23,2.0,2.9,61,0.00,,,0.00,WUHU216HW,2013-03-26 11:28:00,
2013-03-26 07:29:00,52.8,39.3,30.27,NNE,23,2.0,2.9,60,0.00,,,0.00,WUHU216HW,2013-03-26 11:29:00,
2013-03-26 07:32:00,52.7,39.2,30.27,NNE,23,2.6,2.6,60,0.00,,,0.00,WUHU216HW,2013-03-26 11:32:00,
2013-03-26 07:33:00,52.8,39.3,30.27,NNE,23,2.4,2.6,60,0.00,,,0.00,WUHU216HW,2013-03-26 11:33:00,
2013-03-26 07:34:00,52.7,39.3,30.27,NNE,23,2.2,2.6,60,0.00,,,0.00,WUHU216HW,2013-03-26 11:34:00,
2013-03-26 07:38:00,52.7,39.2,30.27,NNE,23,2.6,3.1,60,0.00,,,0.00,WUHU216HW,2013-03-26 11:38:00,
2013-03-26 07:39:00,52.7,39.2,30.27,NNE,23,2.5,3.1,60,0.00,,,0.00,WUHU216HW,2013-03-26 11:39:00,
2013-03-26 07:43:00,52.5,39.0,30.27,NNE,23,3.3,3.3,60,0.00,,,0.00,WUHU216HW,2013-03-26 11:43:00,
2013-03-26 07:44:00,52.5,39.0,30.27,NNE,23,3.3,3.3,60,0.00,,,0.00,WUHU216HW,2013-03-26 11:44:00,
2013-03-26 07:45:00,52.5,39.0,30.27,NNE,23,3.3,3.3,60,0.00,,,0.00,WUHU216HW,2013-03-26 11:45:00,
2013-03-26 07:49:00,52.5,39.0,30.28,NNE,23,0.0,3.3,60,0.00,,,0.00,WUHU216HW,2013-03-26 11:49:00,
2013-03-26 07:51:00,52.5,39.0,30.28,NNE,23,0.0,3.3,60,0.00,,,0.00,WUHU216HW,2013-03-26 11:51:00,
2013-03-26 07:54:00,52.5,39.0,30.28,NNE,23,2.9,3.3,60,0.00,,,0.00,WUHU216HW,2013-03-26 11:54:00,
2013-03-26 07:55:00,52.5,39.0,30.28,NNE,23,2.9,3.3,60,0.00,,,0.00,WUHU216HW,2013-03-26 11:55:00,
2013-03-26 07:56:00,52.5,39.0,30.28,North,0,0.0,2.9,60,0.00,,,0.00,WUHU216HW,2013-03-26 11:56:00,
2013-03-26 08:00:00,52.7,39.2,30.28,NE,45,2.0,2.9,60,0.00,,,0.00,WUHU216HW,2013-03-26 12:00:00,
2013-03-26 08:02:00,52.5,39.0,30.28,NE,45,2.2,2.9,60,0.00,,,0.00,WUHU216HW,2013-03-26 12:02:00,
2013-03-26 08:03:00,52.7,39.0,30.28,NE,45,1.5,2.9,60,0.00,,,0.00,WUHU216HW,2013-03-26 12:03:00,
2013-03-26 08:05:00,52.7,39.2,30.29,NNE,23,2.5,3.8,60,0.00,,,0.00,WUHU216HW,2013-03-26 12:05:00,
2013-03-26 08:06:00,52.7,39.2,30.29,NNE,23,1.1,3.8,60,0.00,,,0.00,WUHU216HW,2013-03-26 12:06:00,
2013-03-26 08:07:00,52.7,39.2,30.29,NNE,23,0.0,3.8,60,0.00,,,0.00,WUHU216HW,2013-03-26 12:07:00,
2013-03-26 08:08:00,52.7,39.2,30.29,NNE,23,1.1,3.8,60,0.00,,,0.00,WUHU216HW,2013-03-26 12:08:00,
2013-03-26 08:10:00,52.7,39.2,30.29,NNE,23,0.0,3.8,60,0.00,,,0.00,WUHU216HW,2013-03-26 12:10:00,
2013-03-26 08:12:00,52.7,39.2,30.29,North,0,6.2,6.2,60,0.00,,,0.00,WUHU216HW,2013-03-26 12:12:00,
2013-03-26 08:13:00,52.7,39.2,30.29,NNE,23,2.3,6.2,60,0.00,,,0.00,WUHU216HW,2013-03-26 12:13:00,
2013-03-26 08:14:00,52.7,39.2,30.29,NNE,23,0.8,6.2,60,0.00,,,0.00,WUHU216HW,2013-03-26 12:14:00,
2013-03-26 08:16:00,52.8,39.2,30.29,NNE,23,3.1,6.2,60,0.00,,,0.00,WUHU216HW,2013-03-26 12:16:00,
2013-03-26 08:18:00,52.8,39.3,30.29,NE,37,3.0,6.2,60,0.00,,,0.00,WUHU216HW,2013-03-26 12:18:00,
2013-03-26 08:19:00,52.8,39.3,30.29,NE,37,3.0,6.2,60,0.00,,,0.00,WUHU216HW,2013-03-26 12:19:00,
2013-03-26 08:20:00,52.8,38.9,30.29,NNE,23,3.1,6.2,59,0.00,,,0.00,WUHU216HW,2013-03-26 12:20:00,
2013-03-26 08:22:00,52.8,38.9,30.29,NNE,23,0.0,5.1,59,0.00,,,0.00,WUHU216HW,2013-03-26 12:22:00,
2013-03-26 08:23:00,52.8,39.3,30.29,NE,45,2.4,5.1,60,0.00,,,0.00,WUHU216HW,2013-03-26 12:23:00,
2013-03-26 08:24:00,52.8,39.3,30.29,NE,45,2.2,5.1,60,0.00,,,0.00,WUHU216HW,2013-03-26 12:24:00,
2013-03-26 08:26:00,52.8,39.3,30.29,NE,45,0.0,5.1,60,0.00,,,0.00,WUHU216HW,2013-03-26 12:26:00,
2013-03-26 08:27:00,52.8,39.3,30.30,NE,45,2.2,3.1,60,0.00,,,0.00,WUHU216HW,2013-03-26 12:27:00,
2013-03-26 08:28:00,52.8,39.3,30.30,NNE,23,5.1,5.1,60,0.00,,,0.00,WUHU216HW,2013-03-26 12:28:00,
2013-03-26 08:29:00,52.8,39.3,30.30,NE,45,6.9,6.9,60,0.00,,,0.00,WUHU216HW,2013-03-26 12:29:00,
2013-03-26 08:31:00,52.8,39.3,30.30,NE,45,5.8,6.9,60,0.00,,,0.00,WUHU216HW,2013-03-26 12:31:00,
2013-03-26 08:33:00,52.8,38.9,30.30,NNE,23,3.5,6.9,59,0.00,,,0.00,WUHU216HW,2013-03-26 12:33:00,
2013-03-26 08:34:00,52.8,38.9,30.30,NNE,23,4.0,6.9,59,0.00,,,0.00,WUHU216HW,2013-03-26 12:34:00,
2013-03-26 08:35:00,52.8,38.9,30.30,NNE,23,4.0,6.9,59,0.00,,,0.00,WUHU216HW,2013-03-26 12:35:00,
2013-03-26 08:37:00,52.8,38.9,30.30,NNE,23,4.4,6.9,59,0.00,,,0.00,WUHU216HW,2013-03-26 12:37:00,
2013-03-26 08:39:00,53.0,39.0,30.30,NNE,23,6.2,6.2,59,0.00,,,0.00,WUHU216HW,2013-03-26 12:39:00,
2013-03-26 08:40:00,53.0,39.0,30.31,NNE,31,4.8,6.2,59,0.00,,,0.00,WUHU216HW,2013-03-26 12:40:00,
2013-03-26 08:42:00,53.0,39.0,30.31,NE,37,2.8,6.2,59,0.00,,,0.00,WUHU216HW,2013-03-26 12:42:00,
2013-03-26 08:44:00,53.0,38.6,30.31,NNE,23,3.1,6.2,58,0.00,,,0.00,WUHU216HW,2013-03-26 12:44:00,
2013-03-26 08:45:00,53.2,38.8,30.31,NNE,23,1.1,6.2,58,0.00,,,0.00,WUHU216HW,2013-03-26 12:45:00,
2013-03-26 08:46:00,53.2,38.8,30.31,NNE,23,1.1,6.2,58,0.00,,,0.00,WUHU216HW,2013-03-26 12:46:00,
2013-03-26 08:47:00,53.2,38.8,30.31,North,0,6.0,6.2,58,0.00,,,0.00,WUHU216HW,2013-03-26 12:47:00,
2013-03-26 08:50:00,53.2,38.8,30.32,NE,35,2.4,6.0,58,0.00,,,0.00,WUHU216HW,2013-03-26 12:50:00,
2013-03-26 08:51:00,53.2,38.8,30.32,NNE,23,2.2,6.0,58,0.00,,,0.00,WUHU216HW,2013-03-26 12:51:00,
2013-03-26 08:52:00,53.2,38.8,30.32,NNE,23,2.2,6.0,58,0.00,,,0.00,WUHU216HW,2013-03-26 12:52:00,
2013-03-26 08:56:00,53.2,38.8,30.32,North,0,7.6,7.6,58,0.00,,,0.00,WUHU216HW,2013-03-26 12:56:00,
2013-03-26 08:57:00,53.2,38.3,30.32,NE,45,4.4,7.6,57,0.00,,,0.00,WUHU216HW,2013-03-26 12:57:00,
2013-03-26 08:58:00,53.2,38.3,30.32,NE,45,4.4,7.6,57,0.00,,,0.00,WUHU216HW,2013-03-26 12:58:00,
2013-03-26 09:01:00,53.4,38.5,30.32,NNE,23,3.3,7.6,57,0.00,,,0.00,WUHU216HW,2013-03-26 13:01:00,
2013-03-26 09:02:00,53.4,38.5,30.32,ENE,68,5.5,7.6,57,0.00,,,0.00,WUHU216HW,2013-03-26 13:02:00,
2013-03-26 09:03:00,53.4,38.5,30.32,ENE,68,5.5,7.6,57,0.00,,,0.00,WUHU216HW,2013-03-26 13:03:00,
2013-03-26 09:07:00,53.4,38.0,30.32,NE,40,3.5,5.5,56,0.00,,,0.00,WUHU216HW,2013-03-26 13:07:00,
2013-03-26 09:08:00,53.4,38.0,30.32,NNE,23,6.2,6.2,56,0.00,,,0.00,WUHU216HW,2013-03-26 13:08:00,
2013-03-26 09:10:00,53.6,38.2,30.32,NNE,23,1.3,6.2,56,0.00,,,0.00,WUHU216HW,2013-03-26 13:10:00,
2013-03-26 09:13:00,53.7,37.9,30.32,NE,45,2.5,6.2,55,0.00,,,0.00,WUHU216HW,2013-03-26 13:13:00,
2013-03-26 09:14:00,53.7,37.9,30.32,NNE,23,3.8,6.2,55,0.00,,,0.00,WUHU216HW,2013-03-26 13:14:00,
2013-03-26 09:16:00,53.7,37.9,30.32,NE,35,2.6,6.2,55,0.00,,,0.00,WUHU216HW,2013-03-26 13:16:00,
2013-03-26 09:18:00,53.7,37.9,30.32,NE,45,8.0,8.0,55,0.00,,,0.00,WUHU216HW,2013-03-26 13:18:00,
2013-03-26 09:19:00,53.7,37.9,30.32,NE,45,8.0,8.0,55,0.00,,,0.00,WUHU216HW,2013-03-26 13:19:00,
2013-03-26 09:22:00,53.7,37.4,30.33,NNE,20,3.5,8.0,54,0.00,,,0.00,WUHU216HW,2013-03-26 13:22:00,
2013-03-26 09:23:00,53.7,37.4,30.33,NNE,23,3.5,8.0,54,0.00,,,0.00,WUHU216HW,2013-03-26 13:23:00,
2013-03-26 09:24:00,53.7,37.4,30.33,NNE,23,3.5,8.0,54,0.00,,,0.00,WUHU216HW,2013-03-26 13:24:00,
2013-03-26 09:27:00,53.9,37.1,30.34,NE,45,2.2,8.0,53,0.00,,,0.00,WUHU216HW,2013-03-26 13:27:00,
2013-03-26 09:28:00,53.9,36.6,30.34,North,0,5.5,6.2,52,0.00,,,0.00,WUHU216HW,2013-03-26 13:28:00,
2013-03-26 09:29:00,53.9,36.6,30.34,North,4,3.3,6.2,52,0.00,,,0.00,WUHU216HW,2013-03-26 13:29:00,
2013-03-26 09:31:00,54.1,36.8,30.34,NNE,23,1.5,5.5,52,0.00,,,0.00,WUHU216HW,2013-03-26 13:31:00,
2013-03-26 09:34:00,54.1,36.8,30.34,NNE,27,5.0,7.8,52,0.00,,,0.00,WUHU216HW,2013-03-26 13:34:00,
2013-03-26 09:35:00,54.1,36.3,30.34,NNE,23,3.8,7.8,51,0.00,,,0.00,WUHU216HW,2013-03-26 13:35:00,
2013-03-26 09:38:00,54.1,36.3,30.34,North,0,8.0,8.0,51,0.00,,,0.00,WUHU216HW,2013-03-26 13:38:00,
2013-03-26 09:39:00,54.1,36.3,30.34,North,6,4.7,8.0,50,0.00,,,0.00,WUHU216HW,2013-03-26 13:39:00,
2013-03-26 09:42:00,54.3,36.0,30.34,NE,45,4.0,8.0,50,0.00,,,0.00,WUHU216HW,2013-03-26 13:42:00,
2013-03-26 09:43:00,54.1,35.9,30.34,NE,45,3.2,8.0,50,0.00,,,0.00,WUHU216HW,2013-03-26 13:43:00,
2013-03-26 09:44:00,54.1,36.0,30.34,North,0,5.1,8.0,50,0.00,,,0.00,WUHU216HW,2013-03-26 13:44:00,
2013-03-26 09:45:00,54.1,36.0,30.34,North,349,4.8,8.0,50,0.00,,,0.00,WUHU216HW,2013-03-26 13:45:00,
2013-03-26 09:47:00,54.3,36.0,30.34,NNE,23,3.6,6.9,50,0.00,,,0.00,WUHU216HW,2013-03-26 13:47:00,
2013-03-26 09:49:00,54.3,36.0,30.34,NE,36,3.9,5.3,50,0.00,,,0.00,WUHU216HW,2013-03-26 13:49:00,
2013-03-26 09:50:00,54.3,36.0,30.34,NNE,23,4.2,5.3,50,0.00,,,0.00,WUHU216HW,2013-03-26 13:50:00,
2013-03-26 09:51:00,54.3,36.0,30.34,NNE,23,4.2,5.3,50,0.00,,,0.00,WUHU216HW,2013-03-26 13:51:00,
2013-03-26 09:53:00,54.3,36.0,30.34,ENE,68,4.2,5.3,50,0.00,,,0.00,WUHU216HW,2013-03-26 13:53:00,
2013-03-26 09:55:00,54.5,36.2,30.34,NNE,23,5.3,5.3,50,0.00,,,0.00,WUHU216HW,2013-03-26 13:55:00,
2013-03-26 09:58:00,54.6,35.8,30.34,NNE,23,4.6,5.3,49,0.00,,,0.00,WUHU216HW,2013-03-26 13:58:00,
2013-03-26 09:59:00,54.6,35.8,30.34,NNE,23,4.6,5.3,49,0.00,,,0.00,WUHU216HW,2013-03-26 13:59:00,
2013-03-26 10:01:00,54.6,35.8,30.34,NNE,23,4.0,5.3,49,0.00,,,0.00,WUHU216HW,2013-03-26 14:01:00,
2013-03-26 10:04:00,54.8,35.9,30.34,NE,45,4.9,5.3,49,0.00,,,0.00,WUHU216HW,2013-03-26 14:04:00,
2013-03-26 10:07:00,55.0,36.1,30.34,NE,45,4.2,6.9,49,0.00,,,0.00,WUHU216HW,2013-03-26 14:07:00,
2013-03-26 10:09:00,55.2,35.7,30.34,North,0,4.9,6.9,48,0.00,,,0.00,WUHU216HW,2013-03-26 14:09:00,
2013-03-26 10:12:00,55.4,35.3,30.34,NE,37,2.7,7.1,47,0.00,,,0.00,WUHU216HW,2013-03-26 14:12:00,
2013-03-26 10:14:00,55.5,36.0,30.34,NE,45,2.0,7.1,48,0.00,,,0.00,WUHU216HW,2013-03-26 14:14:00,
2013-03-26 10:15:00,55.7,36.2,30.35,NNE,23,11.4,11.4,48,0.00,,,0.00,WUHU216HW,2013-03-26 14:15:00,
2013-03-26 10:19:00,55.9,36.4,30.34,North,0,0.0,11.4,48,0.00,,,0.00,WUHU216HW,2013-03-26 14:19:00,
2013-03-26 10:21:00,56.1,36.0,30.35,North,0,8.7,11.4,47,0.00,,,0.00,WUHU216HW,2013-03-26 14:21:00,
2013-03-26 10:24:00,56.3,35.6,30.35,ENE,58,5.3,11.4,46,0.00,,,0.00,WUHU216HW,2013-03-26 14:24:00,
2013-03-26 10:25:00,56.3,35.6,30.35,NE,36,3.8,8.7,46,0.00,,,0.00,WUHU216HW,2013-03-26 14:25:00,
2013-03-26 10:26:00,56.3,35.6,30.34,NE,45,4.6,8.7,46,0.00,,,0.00,WUHU216HW,2013-03-26 14:26:00,
2013-03-26 10:29:00,56.4,35.8,30.34,NNE,23,5.3,9.6,46,0.00,,,0.00,WUHU216HW,2013-03-26 14:29:00,
2013-03-26 10:30:00,56.4,35.8,30.34,NNE,23,3.3,9.6,46,0.00,,,0.00,WUHU216HW,2013-03-26 14:30:00,
2013-03-26 10:32:00,56.4,35.8,30.34,North,0,4.4,9.6,46,0.00,,,0.00,WUHU216HW,2013-03-26 14:32:00,
2013-03-26 10:35:00,56.4,35.8,30.34,NE,42,3.8,9.6,46,0.00,,,0.00,WUHU216HW,2013-03-26 14:35:00,
2013-03-26 10:36:00,56.4,35.8,30.34,NE,45,3.5,9.6,46,0.00,,,0.00,WUHU216HW,2013-03-26 14:36:00,
2013-03-26 10:37:00,56.4,36.4,30.34,NNE,23,6.4,9.6,47,0.00,,,0.00,WUHU216HW,2013-03-26 14:37:00,
2013-03-26 10:41:00,56.8,36.7,30.34,NNE,13,4.6,6.4,47,0.00,,,0.00,WUHU216HW,2013-03-26 14:41:00,
2013-03-26 10:42:00,56.8,36.7,30.34,ENE,68,4.6,6.4,47,0.00,,,0.00,WUHU216HW,2013-03-26 14:42:00,
2013-03-26 10:47:00,56.8,36.7,30.34,NNE,23,12.0,12.0,47,0.00,,,0.00,WUHU216HW,2013-03-26 14:47:00,
2013-03-26 10:48:00,56.8,36.7,30.34,NNE,23,12.0,12.0,47,0.00,,,0.00,WUHU216HW,2013-03-26 14:48:00,
2013-03-26 10:53:00,57.0,36.9,30.35,North,0,7.3,12.0,47,0.00,,,0.00,WUHU216HW,2013-03-26 14:53:00,
2013-03-26 10:54:00,57.0,36.9,30.35,North,0,7.3,12.0,47,0.00,,,0.00,WUHU216HW,2013-03-26 14:54:00,
2013-03-26 10:58:00,57.0,36.9,30.34,NNE,23,7.1,8.0,47,0.00,,,0.00,WUHU216HW,2013-03-26 14:58:00,
2013-03-26 10:59:00,57.0,36.9,30.34,NNE,23,7.1,8.0,47,0.00,,,0.00,WUHU216HW,2013-03-26 14:59:00,
2013-03-26 11:04:00,57.3,37.2,30.34,NE,45,7.0,9.1,47,0.00,,,0.00,WUHU216HW,2013-03-26 15:04:00,
2013-03-26 11:05:00,57.3,37.2,30.34,NE,45,7.0,9.1,47,0.00,,,0.00,WUHU216HW,2013-03-26 15:05:00,
2013-03-26 11:09:00,57.3,37.2,30.35,NNE,23,7.6,9.1,47,0.00,,,0.00,WUHU216HW,2013-03-26 15:09:00,
2013-03-26 11:10:00,57.5,37.4,30.35,NNE,23,5.4,9.1,47,0.00,,,0.00,WUHU216HW,2013-03-26 15:10:00,
2013-03-26 11:11:00,57.5,37.4,30.35,NNE,23,5.4,9.1,47,0.00,,,0.00,WUHU216HW,2013-03-26 15:11:00,
2013-03-26 11:15:00,57.7,37.5,30.35,NE,45,3.0,7.6,47,0.00,,,0.00,WUHU216HW,2013-03-26 15:15:00,
2013-03-26 11:16:00,57.7,37.5,30.35,NE,42,2.7,7.6,47,0.00,,,0.00,WUHU216HW,2013-03-26 15:16:00,
2013-03-26 11:17:00,57.9,37.7,30.35,NNE,23,4.2,7.6,47,0.00,,,0.00,WUHU216HW,2013-03-26 15:17:00,
2013-03-26 11:20:00,57.9,37.7,30.35,NE,35,5.1,6.0,47,0.00,,,0.00,WUHU216HW,2013-03-26 15:20:00,
2013-03-26 11:22:00,57.9,37.7,30.35,East,86,2.1,6.0,47,0.00,,,0.00,WUHU216HW,2013-03-26 15:22:00,
2013-03-26 11:25:00,57.9,37.7,30.35,North,11,5.3,8.5,47,0.00,,,0.00,WUHU216HW,2013-03-26 15:25:00,
2013-03-26 11:26:00,57.9,37.7,30.35,North,11,5.3,8.5,47,0.00,,,0.00,WUHU216HW,2013-03-26 15:26:00,
2013-03-26 11:27:00,57.9,37.7,30.35,North,0,11.4,11.4,47,0.00,,,0.00,WUHU216HW,2013-03-26 15:27:00,
2013-03-26 11:30:00,57.7,37.5,30.36,NNE,23,8.7,11.4,47,0.00,,,0.00,WUHU216HW,2013-03-26 15:30:00,
2013-03-26 11:32:00,57.7,37.5,30.35,NE,45,4.0,11.4,47,0.00,,,0.00,WUHU216HW,2013-03-26 15:32:00,
2013-03-26 11:33:00,57.7,37.5,30.36,NNE,23,5.1,11.4,47,0.00,,,0.00,WUHU216HW,2013-03-26 15:33:00,
2013-03-26 11:34:00,57.7,37.5,30.35,NNE,23,4.6,11.4,47,0.00,,,0.00,WUHU216HW,2013-03-26 15:34:00,
2013-03-26 11:36:00,57.7,37.5,30.35,NNE,23,4.4,11.4,47,0.00,,,0.00,WUHU216HW,2013-03-26 15:36:00,
2013-03-26 11:38:00,57.7,37.5,30.35,NNE,23,7.1,8.7,47,0.00,,,0.00,WUHU216HW,2013-03-26 15:38:00,
2013-03-26 11:39:00,57.7,37.5,30.35,NNE,23,4.8,8.7,47,0.00,,,0.00,WUHU216HW,2013-03-26 15:39:00,
2013-03-26 11:42:00,57.7,37.5,30.35,NNE,23,13.8,13.8,47,0.00,,,0.00,WUHU216HW,2013-03-26 15:42:00,
2013-03-26 11:43:00,57.7,37.5,30.35,NNE,23,13.8,13.8,47,0.00,,,0.00,WUHU216HW,2013-03-26 15:43:00,
2013-03-26 11:45:00,57.9,37.7,30.35,NE,45,5.3,13.8,47,0.00,,,0.00,WUHU216HW,2013-03-26 15:45:00,
2013-03-26 11:48:00,57.9,37.7,30.35,NW,315,7.1,13.8,47,0.00,,,0.00,WUHU216HW,2013-03-26 15:48:00,
2013-03-26 11:50:00,58.1,37.9,30.35,NNE,23,6.2,13.8,47,0.00,,,0.00,WUHU216HW,2013-03-26 15:50:00,
2013-03-26 11:52:00,58.2,38.0,30.34,North,0,8.7,8.7,47,0.00,,,0.00,WUHU216HW,2013-03-26 15:52:00,
2013-03-26 11:53:00,58.2,38.0,30.34,North,0,7.3,8.7,47,0.00,,,0.00,WUHU216HW,2013-03-26 15:53:00,
2013-03-26 11:56:00,58.2,38.2,30.34,North,0,6.1,8.7,47,0.00,,,0.00,WUHU216HW,2013-03-26 15:56:00,
2013-03-26 11:57:00,58.6,38.4,30.34,NNE,23,2.6,8.7,47,0.00,,,0.00,WUHU216HW,2013-03-26 15:57:00,
2013-03-26 11:58:00,58.6,38.4,30.34,NE,45,7.6,8.7,47,0.00,,,0.00,WUHU216HW,2013-03-26 15:58:00,
2013-03-26 11:59:00,58.6,38.4,30.34,NNE,24,7.3,8.7,47,0.00,,,0.00,WUHU216HW,2013-03-26 15:59:00,
2013-03-26 12:01:00,58.8,38.5,30.34,East,90,8.7,8.7,47,0.00,,,0.00,WUHU216HW,2013-03-26 16:01:00,
2013-03-26 12:03:00,58.8,38.5,30.34,North,11,4.3,8.7,47,0.00,,,0.00,WUHU216HW,2013-03-26 16:03:00,
2013-03-26 12:04:00,58.8,38.5,30.34,North,11,4.3,8.7,47,0.00,,,0.00,WUHU216HW,2013-03-26 16:04:00,
2013-03-26 12:07:00,58.8,38.5,30.34,NNW,338,3.5,8.7,47,0.00,,,0.00,WUHU216HW,2013-03-26 16:07:00,
2013-03-26 12:09:00,58.8,38.5,30.34,NW,325,8.1,8.9,47,0.00,,,0.00,WUHU216HW,2013-03-26 16:09:00,
2013-03-26 12:10:00,59.1,38.8,30.34,NNE,23,6.9,8.9,47,0.00,,,0.00,WUHU216HW,2013-03-26 16:10:00,
2013-03-26 12:12:00,59.1,38.8,30.34,WNW,293,2.4,8.9,47,0.00,,,0.00,WUHU216HW,2013-03-26 16:12:00,
2013-03-26 12:14:00,59.3,39.0,30.34,WNW,293,2.4,8.9,47,0.00,,,0.00,WUHU216HW,2013-03-26 16:14:00,
2013-03-26 12:15:00,59.5,39.2,30.34,NNE,23,6.7,8.9,47,0.00,,,0.00,WUHU216HW,2013-03-26 16:15:00,
2013-03-26 12:17:00,59.5,39.2,30.34,North,0,12.0,12.0,47,0.00,,,0.00,WUHU216HW,2013-03-26 16:17:00,
2013-03-26 12:19:00,59.7,39.2,30.34,NNE,13,8.4,12.0,47,0.00,,,0.00,WUHU216HW,2013-03-26 16:19:00,
2013-03-26 12:20:00,59.7,38.8,30.34,NNW,338,5.3,12.0,46,0.00,,,0.00,WUHU216HW,2013-03-26 16:20:00,
2013-03-26 12:22:00,59.7,38.8,30.34,NNE,23,7.4,12.0,46,0.00,,,0.00,WUHU216HW,2013-03-26 16:22:00,
2013-03-26 12:24:00,59.9,38.9,30.34,North,0,2.4,12.0,46,0.00,,,0.00,WUHU216HW,2013-03-26 16:24:00,
2013-03-26 12:26:00,59.9,38.9,30.34,NE,45,6.7,12.0,46,0.00,,,0.00,WUHU216HW,2013-03-26 16:26:00,
2013-03-26 12:27:00,59.9,38.9,30.34,NE,45,6.7,12.0,46,0.00,,,0.00,WUHU216HW,2013-03-26 16:27:00,
2013-03-26 12:29:00,60.0,39.1,30.34,NE,34,5.7,10.7,46,0.00,,,0.00,WUHU216HW,2013-03-26 16:29:00,
2013-03-26 12:32:00,60.0,39.1,30.33,NNE,23,6.2,8.5,46,0.00,,,0.00,WUHU216HW,2013-03-26 16:32:00,
2013-03-26 12:34:00,60.2,39.2,30.34,NE,34,5.9,8.5,46,0.00,,,0.00,WUHU216HW,2013-03-26 16:34:00,
2013-03-26 12:35:00,60.4,39.4,30.34,NE,45,5.1,8.5,46,0.00,,,0.00,WUHU216HW,2013-03-26 16:35:00,
2013-03-26 12:37:00,60.4,39.4,30.34,NE,45,3.3,8.5,46,0.00,,,0.00,WUHU216HW,2013-03-26 16:37:00,
2013-03-26 12:38:00,60.4,39.4,30.34,NNE,23,3.8,6.2,46,0.00,,,0.00,WUHU216HW,2013-03-26 16:38:00,
2013-03-26 12:39:00,60.4,39.4,30.33,NNE,23,3.8,6.2,46,0.00,,,0.00,WUHU216HW,2013-03-26 16:39:00,
2013-03-26 12:41:00,60.4,39.4,30.34,NNE,23,1.7,6.2,46,0.00,,,0.00,WUHU216HW,2013-03-26 16:41:00,
2013-03-26 12:43:00,60.6,39.6,30.33,NW,315,4.0,6.0,46,0.00,,,0.00,WUHU216HW,2013-03-26 16:43:00,
2013-03-26 12:44:00,60.6,39.6,30.34,NE,45,5.8,5.8,46,0.00,,,0.00,WUHU216HW,2013-03-26 16:44:00,
2013-03-26 12:46:00,60.6,39.6,30.33,ENE,57,4.2,6.4,46,0.00,,,0.00,WUHU216HW,2013-03-26 16:46:00,
2013-03-26 12:48:00,60.6,39.6,30.33,North,0,4.6,6.4,46,0.00,,,0.00,WUHU216HW,2013-03-26 16:48:00,
2013-03-26 12:50:00,60.8,39.7,30.34,ENE,68,3.1,6.4,46,0.00,,,0.00,WUHU216HW,2013-03-26 16:50:00,
2013-03-26 12:52:00,60.9,39.9,30.34,NNW,338,8.5,15.2,46,0.00,,,0.00,WUHU216HW,2013-03-26 16:52:00,
2013-03-26 12:53:00,60.9,39.9,30.34,NNW,338,8.5,15.2,46,0.00,,,0.00,WUHU216HW,2013-03-26 16:53:00,
2013-03-26 12:55:00,61.1,39.5,30.33,NNE,23,6.7,15.2,45,0.00,,,0.00,WUHU216HW,2013-03-26 16:55:00,
2013-03-26 12:57:00,61.3,39.6,30.34,NNE,23,7.8,15.2,45,0.00,,,0.00,WUHU216HW,2013-03-26 16:57:00,
2013-03-26 12:58:00,61.1,39.6,30.33,NE,35,5.6,15.2,45,0.00,,,0.00,WUHU216HW,2013-03-26 16:58:00,
2013-03-26 13:00:00,61.5,39.8,30.33,North,5,6.1,8.5,45,0.00,,,0.00,WUHU216HW,2013-03-26 17:00:00,
2013-03-26 13:02:00,61.5,39.8,30.33,NW,313,3.5,8.5,45,0.00,,,0.00,WUHU216HW,2013-03-26 17:02:00,
2013-03-26 13:03:00,61.5,39.8,30.33,SW,225,2.0,7.8,45,0.00,,,0.00,WUHU216HW,2013-03-26 17:03:00,
2013-03-26 13:04:00,61.5,39.8,30.33,SW,228,4.6,7.8,45,0.00,,,0.00,WUHU216HW,2013-03-26 17:04:00,
2013-03-26 13:06:00,61.7,40.0,30.33,NW,307,5.8,7.8,45,0.00,,,0.00,WUHU216HW,2013-03-26 17:06:00,
2013-03-26 13:07:00,61.7,40.0,30.33,NW,307,5.8,7.8,45,0.00,,,0.00,WUHU216HW,2013-03-26 17:07:00,
2013-03-26 13:09:00,61.7,40.0,30.34,North,0,8.9,8.9,45,0.00,,,0.00,WUHU216HW,2013-03-26 17:09:00,
2013-03-26 13:12:00,61.8,39.5,30.33,NNW,346,5.9,8.9,44,0.00,,,0.00,WUHU216HW,2013-03-26 17:12:00,
2013-03-26 13:14:00,61.8,39.5,30.32,NNE,23,6.2,8.9,44,0.00,,,0.00,WUHU216HW,2013-03-26 17:14:00,
2013-03-26 13:15:00,61.8,39.5,30.32,NNE,23,6.2,8.9,44,0.00,,,0.00,WUHU216HW,2013-03-26 17:15:00,
2013-03-26 13:17:00,62.0,39.7,30.32,NNE,29,2.5,8.9,44,0.00,,,0.00,WUHU216HW,2013-03-26 17:17:00,
2013-03-26 13:20:00,62.2,39.9,30.32,NE,45,5.3,6.2,44,0.00,,,0.00,WUHU216HW,2013-03-26 17:20:00,
2013-03-26 13:22:00,62.2,39.9,30.32,NE,45,6.3,11.4,44,0.00,,,0.00,WUHU216HW,2013-03-26 17:22:00,
2013-03-26 13:23:00,62.2,39.9,30.32,NE,45,6.3,11.4,44,0.00,,,0.00,WUHU216HW,2013-03-26 17:23:00,
2013-03-26 13:25:00,62.0,39.7,30.32,NNE,23,5.1,11.4,44,0.00,,,0.00,WUHU216HW,2013-03-26 17:25:00,
2013-03-26 13:28:00,62.0,39.7,30.33,NNW,343,3.2,11.4,44,0.00,,,0.00,WUHU216HW,2013-03-26 17:28:00,
2013-03-26 13:29:00,62.0,39.7,30.32,NNE,23,3.5,11.4,44,0.00,,,0.00,WUHU216HW,2013-03-26 17:29:00,
2013-03-26 13:31:00,62.0,39.7,30.32,NNE,23,3.3,11.4,44,0.00,,,0.00,WUHU216HW,2013-03-26 17:31:00,
2013-03-26 13:32:00,61.8,39.5,30.33,NNE,23,8.7,8.7,44,0.00,,,0.00,WUHU216HW,2013-03-26 17:32:00,
2013-03-26 13:33:00,61.8,39.0,30.32,NNE,23,8.5,8.7,43,0.00,,,0.00,WUHU216HW,2013-03-26 17:33:00,
2013-03-26 13:35:00,61.7,38.8,30.32,NNE,19,5.0,8.7,43,0.00,,,0.00,WUHU216HW,2013-03-26 17:35:00,
2013-03-26 13:36:00,61.7,38.8,30.32,NW,315,2.4,8.7,43,0.00,,,0.00,WUHU216HW,2013-03-26 17:36:00,
2013-03-26 13:38:00,61.7,39.4,30.32,NNE,23,0.8,8.7,44,0.00,,,0.00,WUHU216HW,2013-03-26 17:38:00,
2013-03-26 13:40:00,61.7,40.0,30.33,North,0,9.8,9.8,45,0.00,,,0.00,WUHU216HW,2013-03-26 17:40:00,
2013-03-26 13:42:00,61.8,39.5,30.33,North,349,9.3,9.8,44,0.00,,,0.00,WUHU216HW,2013-03-26 17:42:00,
2013-03-26 13:43:00,61.8,40.1,30.32,ENE,68,2.6,9.8,45,0.00,,,0.00,WUHU216HW,2013-03-26 17:43:00,
2013-03-26 13:44:00,61.8,40.1,30.32,ENE,68,2.6,9.8,45,0.00,,,0.00,WUHU216HW,2013-03-26 17:44:00,
2013-03-26 13:46:00,61.8,40.1,30.32,NE,45,2.6,9.8,45,0.00,,,0.00,WUHU216HW,2013-03-26 17:46:00,
2013-03-26 13:47:00,62.0,40.3,30.32,NNW,338,9.6,9.8,45,0.00,,,0.00,WUHU216HW,2013-03-26 17:47:00,
2013-03-26 13:49:00,62.2,40.4,30.32,NW,313,7.7,9.8,45,0.00,,,0.00,WUHU216HW,2013-03-26 17:49:00,
2013-03-26 13:51:00,62.2,40.4,30.32,NNE,23,4.6,9.6,45,0.00,,,0.00,WUHU216HW,2013-03-26 17:51:00,
2013-03-26 13:53:00,62.4,40.0,30.32,NNE,23,13.1,13.1,44,0.00,,,0.00,WUHU216HW,2013-03-26 17:53:00,
2013-03-26 13:54:00,62.4,40.0,30.32,NNE,23,8.6,13.1,44,0.00,,,0.00,WUHU216HW,2013-03-26 17:54:00,
2013-03-26 13:56:00,62.4,40.0,30.32,NNE,23,2.6,13.1,44,0.00,,,0.00,WUHU216HW,2013-03-26 17:56:00,
2013-03-26 13:58:00,62.4,40.0,30.32,West,270,2.4,13.1,44,0.00,,,0.00,WUHU216HW,2013-03-26 17:58:00,
2013-03-26 13:59:00,62.4,40.0,30.32,NNE,13,6.1,13.1,44,0.00,,,0.00,WUHU216HW,2013-03-26 17:59:00,
2013-03-26 14:00:00,62.4,40.0,30.32,NNE,13,6.1,13.1,44,0.00,,,0.00,WUHU216HW,2013-03-26 18:00:00,
2013-03-26 14:02:00,62.7,40.4,30.32,NE,45,8.0,13.1,44,0.00,,,0.00,WUHU216HW,2013-03-26 18:02:00,
2013-03-26 14:03:00,62.7,40.4,30.32,North,0,0.0,10.2,44,0.00,,,0.00,WUHU216HW,2013-03-26 18:03:00,
2013-03-26 14:05:00,62.7,40.4,30.32,NE,45,3.5,10.2,44,0.00,,,0.00,WUHU216HW,2013-03-26 18:05:00,
2013-03-26 14:08:00,62.9,40.5,30.32,NW,315,7.3,8.0,44,0.00,,,0.00,WUHU216HW,2013-03-26 18:08:00,
2013-03-26 14:09:00,63.1,40.7,30.32,NW,315,7.3,8.0,44,0.00,,,0.00,WUHU216HW,2013-03-26 18:09:00,
2013-03-26 14:10:00,63.1,40.7,30.32,NW,315,7.3,8.0,44,0.00,,,0.00,WUHU216HW,2013-03-26 18:10:00,
2013-03-26 14:14:00,63.1,40.7,30.32,NW,315,5.8,10.2,44,0.00,,,0.00,WUHU216HW,2013-03-26 18:14:00,
2013-03-26 14:15:00,63.3,40.8,30.32,NW,315,4.4,10.2,44,0.00,,,0.00,WUHU216HW,2013-03-26 18:15:00,
2013-03-26 14:16:00,63.1,40.8,30.32,WSW,248,9.3,10.2,44,0.00,,,0.00,WUHU216HW,2013-03-26 18:16:00,
2013-03-26 14:19:00,63.3,40.8,30.31,NNE,12,2.0,10.2,44,0.00,,,0.00,WUHU216HW,2013-03-26 18:19:00,
2013-03-26 14:20:00,63.3,40.8,30.31,NNE,12,2.0,10.2,44,0.00,,,0.00,WUHU216HW,2013-03-26 18:20:00,
2013-03-26 14:21:00,63.3,40.8,30.31,WNW,291,3.0,9.3,44,0.00,,,0.00,WUHU216HW,2013-03-26 18:21:00,
2013-03-26 14:25:00,63.5,41.0,30.31,West,270,3.5,6.0,44,0.00,,,0.00,WUHU216HW,2013-03-26 18:25:00,
2013-03-26 14:28:00,63.6,41.2,30.31,NNE,23,4.8,10.7,44,0.00,,,0.00,WUHU216HW,2013-03-26 18:28:00,
2013-03-26 14:30:00,63.6,41.2,30.31,NE,36,8.4,14.5,44,0.00,,,0.00,WUHU216HW,2013-03-26 18:30:00,
2013-03-26 14:31:00,63.6,41.2,30.31,NE,36,8.4,14.5,44,0.00,,,0.00,WUHU216HW,2013-03-26 18:31:00,
2013-03-26 14:35:00,64.0,42.1,30.31,North,355,2.4,14.5,45,0.00,,,0.00,WUHU216HW,2013-03-26 18:35:00,
2013-03-26 14:36:00,64.0,42.1,30.31,WNW,293,6.2,14.5,45,0.00,,,0.00,WUHU216HW,2013-03-26 18:36:00,
2013-03-26 14:38:00,64.0,42.1,30.31,North,0,7.1,14.5,45,0.00,,,0.00,WUHU216HW,2013-03-26 18:38:00,
2013-03-26 14:41:00,64.2,42.2,30.31,WNW,293,4.2,7.1,45,0.00,,,0.00,WUHU216HW,2013-03-26 18:41:00,
2013-03-26 14:43:00,64.2,42.8,30.31,North,0,10.9,10.9,46,0.00,,,0.00,WUHU216HW,2013-03-26 18:43:00,
2013-03-26 14:46:00,64.2,42.2,30.31,NNE,28,11.4,17.4,45,0.00,,,0.00,WUHU216HW,2013-03-26 18:46:00,
2013-03-26 14:48:00,64.2,42.2,30.31,North,352,8.8,17.4,45,0.00,,,0.00,WUHU216HW,2013-03-26 18:48:00,
2013-03-26 14:51:00,64.2,42.2,30.31,NE,45,3.1,17.4,45,0.00,,,0.00,WUHU216HW,2013-03-26 18:51:00,
2013-03-26 14:52:00,64.4,42.4,30.31,NE,45,2.5,17.4,45,0.00,,,0.00,WUHU216HW,2013-03-26 18:52:00,
2013-03-26 14:53:00,64.2,41.1,30.31,NE,45,10.5,17.4,43,0.00,,,0.00,WUHU216HW,2013-03-26 18:53:00,
2013-03-26 14:56:00,64.2,41.1,30.31,North,0,1.5,11.1,43,0.00,,,0.00,WUHU216HW,2013-03-26 18:56:00,
2013-03-26 14:57:00,64.2,41.7,30.31,North,4,4.5,10.5,44,0.00,,,0.00,WUHU216HW,2013-03-26 18:57:00,
2013-03-26 14:59:00,64.2,41.7,30.31,NNE,12,8.1,10.5,44,0.00,,,0.00,WUHU216HW,2013-03-26 18:59:00,
2013-03-26 15:02:00,64.5,42.0,30.31,NW,317,7.6,10.5,44,0.00,,,0.00,WUHU216HW,2013-03-26 19:02:00,
2013-03-26 15:03:00,64.5,41.8,30.32,WNW,287,4.7,8.5,44,0.00,,,0.00,WUHU216HW,2013-03-26 19:03:00,
2013-03-26 15:04:00,64.5,42.0,30.31,NE,45,3.5,8.5,44,0.00,,,0.00,WUHU216HW,2013-03-26 19:04:00,
2013-03-26 15:07:00,64.5,42.0,30.31,NW,315,1.5,8.5,44,0.00,,,0.00,WUHU216HW,2013-03-26 19:07:00,
2013-03-26 15:08:00,64.5,42.0,30.31,NNW,338,2.0,8.2,44,0.00,,,0.00,WUHU216HW,2013-03-26 19:08:00,
2013-03-26 15:09:00,64.5,42.0,30.31,NNW,338,2.2,8.2,44,0.00,,,0.00,WUHU216HW,2013-03-26 19:09:00,
2013-03-26 15:14:00,64.5,42.0,30.31,NNE,23,7.1,7.1,44,0.00,,,0.00,WUHU216HW,2013-03-26 19:14:00,
2013-03-26 15:15:00,64.5,42.0,30.31,North,0,10.5,10.5,44,0.00,,,0.00,WUHU216HW,2013-03-26 19:15:00,
2013-03-26 15:19:00,64.5,40.8,30.31,North,0,8.2,10.5,42,0.00,,,0.00,WUHU216HW,2013-03-26 19:19:00,
2013-03-26 15:20:00,64.5,40.8,30.31,NNW,345,5.2,10.5,42,0.00,,,0.00,WUHU216HW,2013-03-26 19:20:00,
2013-03-26 15:21:00,64.5,40.8,30.31,West,270,2.2,10.5,42,0.00,,,0.00,WUHU216HW,2013-03-26 19:21:00,
2013-03-26 15:24:00,64.5,40.8,30.31,WNW,293,1.5,8.9,42,0.00,,,0.00,WUHU216HW,2013-03-26 19:24:00,
2013-03-26 15:25:00,64.5,41.4,30.31,WNW,293,1.1,8.9,43,0.00,,,0.00,WUHU216HW,2013-03-26 19:25:00,
2013-03-26 15:27:00,64.5,41.4,30.31,West,270,2.2,8.2,43,0.00,,,0.00,WUHU216HW,2013-03-26 19:27:00,
2013-03-26 15:30:00,64.7,41.0,30.31,NE,45,5.8,8.7,42,0.00,,,0.00,WUHU216HW,2013-03-26 19:30:00,
2013-03-26 15:31:00,64.7,41.0,30.31,NE,45,6.4,8.7,42,0.00,,,0.00,WUHU216HW,2013-03-26 19:31:00,
2013-03-26 15:35:00,64.9,41.7,30.31,NE,45,0.0,8.7,43,0.00,,,0.00,WUHU216HW,2013-03-26 19:35:00,
2013-03-26 15:37:00,64.9,41.1,30.31,NNW,345,8.7,11.4,42,0.00,,,0.00,WUHU216HW,2013-03-26 19:37:00,
2013-03-26 15:40:00,64.9,41.1,30.31,North,0,7.6,11.4,42,0.00,,,0.00,WUHU216HW,2013-03-26 19:40:00,
2013-03-26 15:42:00,65.1,41.9,30.32,NNW,338,0.8,11.4,43,0.00,,,0.00,WUHU216HW,2013-03-26 19:42:00,
2013-03-26 15:45:00,65.1,41.3,30.31,WNW,303,7.9,12.0,42,0.00,,,0.00,WUHU216HW,2013-03-26 19:45:00,
2013-03-26 15:48:00,65.1,41.3,30.31,WSW,248,8.2,12.0,42,0.00,,,0.00,WUHU216HW,2013-03-26 19:48:00,
2013-03-26 15:51:00,65.1,41.3,30.32,NNW,338,6.2,12.0,42,0.00,,,0.00,WUHU216HW,2013-03-26 19:51:00,
2013-03-26 15:53:00,65.1,41.3,30.31,SW,225,8.9,9.6,42,0.00,,,0.00,WUHU216HW,2013-03-26 19:53:00,
2013-03-26 15:57:00,65.1,41.3,30.31,SW,225,1.3,8.9,42,0.00,,,0.00,WUHU216HW,2013-03-26 19:57:00,
2013-03-26 15:58:00,65.1,41.3,30.31,WNW,293,3.3,8.9,42,0.00,,,0.00,WUHU216HW,2013-03-26 19:58:00,
2013-03-26 15:59:00,64.9,41.1,30.31,WNW,293,2.7,8.9,42,0.00,,,0.00,WUHU216HW,2013-03-26 19:59:00,
2013-03-26 16:02:00,64.9,41.1,30.31,West,263,7.8,11.6,42,0.00,,,0.00,WUHU216HW,2013-03-26 20:02:00,
2013-03-26 16:03:00,64.9,41.1,30.31,NW,322,3.0,11.6,42,0.00,,,0.00,WUHU216HW,2013-03-26 20:03:00,
2013-03-26 16:04:00,64.9,41.1,30.31,WSW,248,6.2,11.6,42,0.00,,,0.00,WUHU216HW,2013-03-26 20:04:00,
2013-03-26 16:05:00,64.9,41.1,30.31,SW,227,5.8,11.6,42,0.00,,,0.00,WUHU216HW,2013-03-26 20:05:00,
2013-03-26 16:08:00,64.9,41.1,30.31,NW,315,0.0,11.6,42,0.00,,,0.00,WUHU216HW,2013-03-26 20:08:00,
2013-03-26 16:09:00,64.9,41.1,30.31,North,0,2.2,11.6,42,0.00,,,0.00,WUHU216HW,2013-03-26 20:09:00,
2013-03-26 16:11:00,64.9,41.1,30.31,North,0,2.2,6.2,42,0.00,,,0.00,WUHU216HW,2013-03-26 20:11:00,
2013-03-26 16:13:00,64.7,41.0,30.31,WSW,248,2.0,6.2,42,0.00,,,0.00,WUHU216HW,2013-03-26 20:13:00,
2013-03-26 16:14:00,64.7,41.0,30.31,NW,315,2.4,5.3,42,0.00,,,0.00,WUHU216HW,2013-03-26 20:14:00,
2013-03-26 16:15:00,64.7,41.0,30.31,NNW,338,5.3,5.3,42,0.00,,,0.00,WUHU216HW,2013-03-26 20:15:00,
2013-03-26 16:16:00,64.7,41.0,30.31,NNW,345,4.0,5.3,42,0.00,,,0.00,WUHU216HW,2013-03-26 20:16:00,
2013-03-26 16:18:00,64.7,41.0,30.31,NNW,338,5.8,5.8,42,0.00,,,0.00,WUHU216HW,2013-03-26 20:18:00,
2013-03-26 16:20:00,64.7,41.0,30.31,WSW,253,3.6,5.8,42,0.00,,,0.00,WUHU216HW,2013-03-26 20:20:00,
2013-03-26 16:22:00,64.7,41.0,30.31,North,0,8.0,8.0,42,0.00,,,0.00,WUHU216HW,2013-03-26 20:22:00,
2013-03-26 16:24:00,64.5,40.8,30.31,WSW,248,3.1,8.0,42,0.00,,,0.00,WUHU216HW,2013-03-26 20:24:00,
2013-03-26 16:25:00,64.5,40.8,30.31,WSW,248,2.0,8.0,42,0.00,,,0.00,WUHU216HW,2013-03-26 20:25:00,
2013-03-26 16:27:00,64.5,40.2,30.31,WSW,254,6.9,9.6,42,0.00,,,0.00,WUHU216HW,2013-03-26 20:27:00,
2013-03-26 16:30:00,64.5,40.2,30.31,WSW,253,6.4,9.6,41,0.00,,,0.00,WUHU216HW,2013-03-26 20:30:00,
2013-03-26 16:31:00,64.5,40.2,30.31,WSW,253,6.4,9.6,41,0.00,,,0.00,WUHU216HW,2013-03-26 20:31:00,
2013-03-26 16:32:00,64.5,40.2,30.31,WSW,248,3.1,9.6,41,0.00,,,0.00,WUHU216HW,2013-03-26 20:32:00,
2013-03-26 16:33:00,64.5,40.2,30.31,WSW,248,7.6,9.6,41,0.00,,,0.00,WUHU216HW,2013-03-26 20:33:00,
2013-03-26 16:36:00,64.2,39.9,30.31,WSW,248,9.7,13.6,41,0.00,,,0.00,WUHU216HW,2013-03-26 20:36:00,
2013-03-26 16:37:00,64.2,39.9,30.31,WSW,248,5.8,13.6,41,0.00,,,0.00,WUHU216HW,2013-03-26 20:37:00,
2013-03-26 16:38:00,64.2,39.9,30.31,WSW,248,9.1,13.6,41,0.00,,,0.00,WUHU216HW,2013-03-26 20:38:00,
2013-03-26 16:42:00,64.0,40.3,30.31,WSW,248,7.8,13.6,42,0.00,,,0.00,WUHU216HW,2013-03-26 20:42:00,
2013-03-26 16:43:00,64.0,40.3,30.31,WSW,248,7.8,13.6,42,0.00,,,0.00,WUHU216HW,2013-03-26 20:43:00,
2013-03-26 16:44:00,64.0,40.3,30.31,WSW,248,10.0,13.6,42,0.00,,,0.00,WUHU216HW,2013-03-26 20:44:00,
2013-03-26 16:45:00,63.6,40.0,30.31,WSW,256,8.1,13.6,42,0.00,,,0.00,WUHU216HW,2013-03-26 20:45:00,
2013-03-26 16:47:00,63.5,39.9,30.30,WSW,248,8.4,12.9,42,0.00,,,0.00,WUHU216HW,2013-03-26 20:47:00,
2013-03-26 16:48:00,63.5,39.9,30.30,WSW,248,8.4,12.9,42,0.00,,,0.00,WUHU216HW,2013-03-26 20:48:00,
2013-03-26 16:49:00,63.5,39.9,30.30,WSW,248,2.9,12.9,42,0.00,,,0.00,WUHU216HW,2013-03-26 20:49:00,
2013-03-26 16:51:00,63.5,39.9,30.30,WSW,248,2.1,12.9,42,0.00,,,0.00,WUHU216HW,2013-03-26 20:51:00,
2013-03-26 16:52:00,63.5,40.4,30.30,WSW,248,4.9,12.9,43,0.00,,,0.00,WUHU216HW,2013-03-26 20:52:00,
2013-03-26 16:54:00,63.5,40.4,30.31,WSW,248,6.9,12.9,43,0.00,,,0.00,WUHU216HW,2013-03-26 20:54:00,
2013-03-26 16:55:00,63.5,40.4,30.31,WSW,248,6.9,12.9,43,0.00,,,0.00,WUHU216HW,2013-03-26 20:55:00,
2013-03-26 16:57:00,63.5,40.4,30.30,WSW,248,14.0,14.0,43,0.00,,,0.00,WUHU216HW,2013-03-26 20:57:00,
2013-03-26 16:59:00,63.5,39.9,30.30,WSW,248,5.7,14.0,42,0.00,,,0.00,WUHU216HW,2013-03-26 20:59:00,
2013-03-26 17:00:00,63.5,39.9,30.30,WSW,248,5.7,14.0,42,0.00,,,0.00,WUHU216HW,2013-03-26 21:00:00,
2013-03-26 17:02:00,63.3,39.7,30.30,West,273,6.7,14.0,42,0.00,,,0.00,WUHU216HW,2013-03-26 21:02:00,
2013-03-26 17:04:00,63.3,39.7,30.30,NNW,338,2.2,14.0,42,0.00,,,0.00,WUHU216HW,2013-03-26 21:04:00,
2013-03-26 17:05:00,63.3,39.7,30.30,NNW,338,2.2,14.0,42,0.00,,,0.00,WUHU216HW,2013-03-26 21:05:00,
2013-03-26 17:07:00,63.3,39.7,30.30,WNW,289,4.1,9.8,42,0.00,,,0.00,WUHU216HW,2013-03-26 21:07:00,
2013-03-26 17:10:00,63.3,39.7,30.30,North,0,3.8,7.6,42,0.00,,,0.00,WUHU216HW,2013-03-26 21:10:00,
2013-03-26 17:11:00,63.3,39.7,30.30,North,0,3.8,7.6,42,0.00,,,0.00,WUHU216HW,2013-03-26 21:11:00,
2013-03-26 17:13:00,63.5,39.9,30.30,NNW,338,4.9,5.8,42,0.00,,,0.00,WUHU216HW,2013-03-26 21:13:00,
2013-03-26 17:15:00,63.5,39.9,30.30,North,352,4.2,6.9,42,0.00,,,0.00,WUHU216HW,2013-03-26 21:15:00,
2013-03-26 17:16:00,63.5,39.7,30.30,NW,315,1.5,6.9,42,0.00,,,0.00,WUHU216HW,2013-03-26 21:16:00,
2013-03-26 17:18:00,63.5,39.9,30.30,West,270,0.0,6.9,42,0.00,,,0.00,WUHU216HW,2013-03-26 21:18:00,
2013-03-26 17:21:00,63.5,39.9,30.30,WNW,293,3.3,6.9,42,0.00,,,0.00,WUHU216HW,2013-03-26 21:21:00,
2013-03-26 17:23:00,63.5,39.9,30.30,West,270,4.0,6.9,42,0.00,,,0.00,WUHU216HW,2013-03-26 21:23:00,
2013-03-26 17:25:00,63.5,39.9,30.30,WSW,248,6.7,6.7,42,0.00,,,0.00,WUHU216HW,2013-03-26 21:25:00,
2013-03-26 17:26:00,63.5,39.9,30.30,WSW,248,0.0,6.7,42,0.00,,,0.00,WUHU216HW,2013-03-26 21:26:00,
2013-03-26 17:27:00,63.5,39.9,30.30,WSW,248,0.0,6.7,42,0.00,,,0.00,WUHU216HW,2013-03-26 21:27:00,
2013-03-26 17:29:00,63.5,39.9,30.31,WSW,248,7.1,7.1,42,0.00,,,0.00,WUHU216HW,2013-03-26 21:29:00,
2013-03-26 17:30:00,63.5,39.9,30.31,West,268,6.4,7.1,42,0.00,,,0.00,WUHU216HW,2013-03-26 21:30:00,
2013-03-26 17:32:00,63.5,39.9,30.31,WSW,248,7.3,7.3,42,0.00,,,0.00,WUHU216HW,2013-03-26 21:32:00,
2013-03-26 17:34:00,63.5,39.9,30.31,WSW,248,5.2,7.3,42,0.00,,,0.00,WUHU216HW,2013-03-26 21:34:00,
2013-03-26 17:36:00,63.3,39.7,30.31,WSW,248,12.0,12.0,42,0.00,,,0.00,WUHU216HW,2013-03-26 21:36:00,
2013-03-26 17:37:00,63.3,39.7,30.31,WSW,248,8.6,12.0,42,0.00,,,0.00,WUHU216HW,2013-03-26 21:37:00,
2013-03-26 17:38:00,63.1,39.5,30.31,WSW,248,4.9,12.0,42,0.00,,,0.00,WUHU216HW,2013-03-26 21:38:00,
2013-03-26 17:39:00,63.1,39.5,30.31,WSW,248,4.9,12.0,42,0.00,,,0.00,WUHU216HW,2013-03-26 21:39:00,
2013-03-26 17:43:00,63.1,39.5,30.31,WSW,248,3.3,12.0,42,0.00,,,0.00,WUHU216HW,2013-03-26 21:43:00,
2013-03-26 17:44:00,62.9,39.4,30.31,West,265,2.3,12.0,42,0.00,,,0.00,WUHU216HW,2013-03-26 21:44:00,
2013-03-26 17:48:00,62.7,39.2,30.31,WSW,248,8.2,8.2,42,0.00,,,0.00,WUHU216HW,2013-03-26 21:48:00,
2013-03-26 17:50:00,62.7,39.2,30.31,WSW,248,6.6,8.2,42,0.00,,,0.00,WUHU216HW,2013-03-26 21:50:00,
2013-03-26 17:51:00,62.6,39.0,30.31,WSW,248,4.1,8.2,42,0.00,,,0.00,WUHU216HW,2013-03-26 21:51:00,
2013-03-26 17:54:00,62.2,38.7,30.31,WSW,248,2.1,8.2,42,0.00,,,0.00,WUHU216HW,2013-03-26 21:54:00,
2013-03-26 17:55:00,62.2,38.7,30.31,WSW,248,4.9,8.2,42,0.00,,,0.00,WUHU216HW,2013-03-26 21:55:00,
2013-03-26 17:57:00,62.0,38.0,30.31,WSW,248,3.7,8.2,41,0.00,,,0.00,WUHU216HW,2013-03-26 21:57:00,
2013-03-26 17:59:00,61.8,37.8,30.31,WSW,248,3.1,4.9,41,0.00,,,0.00,WUHU216HW,2013-03-26 21:59:00,
2013-03-26 18:00:00,61.8,37.8,30.31,WSW,248,1.9,4.9,41,0.00,,,0.00,WUHU216HW,2013-03-26 22:00:00,
2013-03-26 18:01:00,61.8,37.8,30.31,WSW,248,1.9,4.9,41,0.00,,,0.00,WUHU216HW,2013-03-26 22:01:00,
2013-03-26 18:02:00,61.8,37.8,30.31,WNW,293,4.4,4.9,41,0.00,,,0.00,WUHU216HW,2013-03-26 22:02:00,
2013-03-26 18:04:00,61.8,37.8,30.31,WSW,248,1.7,4.4,41,0.00,,,0.00,WUHU216HW,2013-03-26 22:04:00,
2013-03-26 18:06:00,61.8,37.8,30.31,WSW,248,0.8,4.4,41,0.00,,,0.00,WUHU216HW,2013-03-26 22:06:00,
2013-03-26 18:07:00,61.8,37.8,30.31,WSW,248,6.9,6.9,41,0.00,,,0.00,WUHU216HW,2013-03-26 22:07:00,
2013-03-26 18:10:00,62.0,38.0,30.31,West,267,2.9,6.9,41,0.00,,,0.00,WUHU216HW,2013-03-26 22:10:00,
2013-03-26 18:11:00,62.0,38.0,30.31,WSW,248,4.0,6.9,41,0.00,,,0.00,WUHU216HW,2013-03-26 22:11:00,
2013-03-26 18:12:00,62.0,38.0,30.31,WSW,248,4.0,6.9,41,0.00,,,0.00,WUHU216HW,2013-03-26 22:12:00,
2013-03-26 18:14:00,62.2,38.1,30.31,WSW,248,4.0,6.9,41,0.00,,,0.00,WUHU216HW,2013-03-26 22:14:00,
2013-03-26 18:15:00,62.2,38.1,30.31,WSW,248,2.3,6.9,41,0.00,,,0.00,WUHU216HW,2013-03-26 22:15:00,
2013-03-26 18:17:00,62.2,38.1,30.32,WSW,248,1.7,5.1,41,0.00,,,0.00,WUHU216HW,2013-03-26 22:17:00,
2013-03-26 18:18:00,62.2,38.1,30.32,WSW,248,4.0,5.1,41,0.00,,,0.00,WUHU216HW,2013-03-26 22:18:00,
2013-03-26 18:19:00,62.2,38.1,30.32,WSW,248,7.2,12.7,41,0.00,,,0.00,WUHU216HW,2013-03-26 22:19:00,
2013-03-26 18:20:00,62.2,38.1,30.32,WSW,248,1.7,12.7,41,0.00,,,0.00,WUHU216HW,2013-03-26 22:20:00,
2013-03-26 18:22:00,62.0,38.0,30.32,North,0,3.5,12.7,41,0.00,,,0.00,WUHU216HW,2013-03-26 22:22:00,
2013-03-26 18:24:00,61.8,37.8,30.32,North,0,6.9,12.7,41,0.00,,,0.00,WUHU216HW,2013-03-26 22:24:00,
2013-03-26 18:25:00,61.8,37.8,30.32,North,0,5.7,12.7,41,0.00,,,0.00,WUHU216HW,2013-03-26 22:25:00,
2013-03-26 18:28:00,61.7,37.7,30.32,NNW,338,4.4,12.7,41,0.00,,,0.00,WUHU216HW,2013-03-26 22:28:00,
2013-03-26 18:29:00,61.5,37.5,30.33,NW,311,4.9,6.9,41,0.00,,,0.00,WUHU216HW,2013-03-26 22:29:00,
2013-03-26 18:30:00,61.5,37.5,30.33,North,0,4.2,6.9,41,0.00,,,0.00,WUHU216HW,2013-03-26 22:30:00,
2013-03-26 18:31:00,61.5,37.5,30.33,North,0,4.2,6.9,41,0.00,,,0.00,WUHU216HW,2013-03-26 22:31:00,
2013-03-26 18:33:00,61.3,37.3,30.33,North,356,6.4,10.5,41,0.00,,,0.00,WUHU216HW,2013-03-26 22:33:00,
2013-03-26 18:34:00,60.9,37.0,30.33,North,0,6.0,10.5,41,0.00,,,0.00,WUHU216HW,2013-03-26 22:34:00,
2013-03-26 18:36:00,60.9,37.0,30.33,North,0,4.2,10.5,41,0.00,,,0.00,WUHU216HW,2013-03-26 22:36:00,
2013-03-26 18:37:00,60.9,37.0,30.33,North,0,4.2,10.5,41,0.00,,,0.00,WUHU216HW,2013-03-26 22:37:00,
2013-03-26 18:38:00,60.8,37.3,30.33,North,0,6.2,10.5,42,0.00,,,0.00,WUHU216HW,2013-03-26 22:38:00,
2013-03-26 18:39:00,60.6,37.3,30.33,North,0,7.6,10.5,42,0.00,,,0.00,WUHU216HW,2013-03-26 22:39:00,
2013-03-26 18:42:00,60.6,37.3,30.32,ENE,78,6.4,7.6,42,0.00,,,0.00,WUHU216HW,2013-03-26 22:42:00,
2013-03-26 18:44:00,60.4,37.7,30.33,NNE,23,4.9,7.6,43,0.00,,,0.00,WUHU216HW,2013-03-26 22:44:00,
2013-03-26 18:47:00,60.2,37.5,30.33,NNE,26,3.6,7.6,43,0.00,,,0.00,WUHU216HW,2013-03-26 22:47:00,
2013-03-26 18:50:00,60.0,37.4,30.33,NNE,23,8.2,10.9,43,0.00,,,0.00,WUHU216HW,2013-03-26 22:50:00,
2013-03-26 18:53:00,59.7,37.0,30.33,North,0,0.0,10.9,43,0.00,,,0.00,WUHU216HW,2013-03-26 22:53:00,
2013-03-26 18:54:00,59.7,37.0,30.33,North,0,0.0,10.9,43,0.00,,,0.00,WUHU216HW,2013-03-26 22:54:00,
2013-03-26 18:56:00,59.5,36.9,30.34,NNE,13,5.9,10.9,43,0.00,,,0.00,WUHU216HW,2013-03-26 22:56:00,
2013-03-26 18:58:00,59.3,37.3,30.34,North,0,7.3,10.2,44,0.00,,,0.00,WUHU216HW,2013-03-26 22:58:00,
2013-03-26 19:00:00,59.3,37.3,30.34,NNW,337,5.2,10.2,44,0.00,,,0.00,WUHU216HW,2013-03-26 23:00:00,
2013-03-26 19:03:00,59.1,37.1,30.34,ESE,113,0.0,10.2,44,0.00,,,0.00,WUHU216HW,2013-03-26 23:03:00,
2013-03-26 19:04:00,58.8,37.1,30.34,North,0,0.0,10.2,44,0.00,,,0.00,WUHU216HW,2013-03-26 23:04:00,
2013-03-26 19:05:00,58.8,36.8,30.34,SSE,158,8.0,8.0,44,0.00,,,0.00,WUHU216HW,2013-03-26 23:05:00,
2013-03-26 19:08:00,58.8,36.8,30.34,NNE,25,3.0,8.0,44,0.00,,,0.00,WUHU216HW,2013-03-26 23:08:00,
2013-03-26 19:09:00,58.8,36.8,30.34,NNE,23,3.5,8.0,44,0.00,,,0.00,WUHU216HW,2013-03-26 23:09:00,
2013-03-26 19:10:00,58.8,36.8,30.34,North,353,2.8,8.0,44,0.00,,,0.00,WUHU216HW,2013-03-26 23:10:00,
2013-03-26 19:11:00,58.8,36.8,30.34,North,353,2.8,8.0,44,0.00,,,0.00,WUHU216HW,2013-03-26 23:11:00,
2013-03-26 19:14:00,58.8,37.4,30.34,WNW,293,1.1,8.0,45,0.00,,,0.00,WUHU216HW,2013-03-26 23:14:00,
2013-03-26 19:16:00,58.8,37.4,30.34,NNE,32,4.3,6.2,45,0.00,,,0.00,WUHU216HW,2013-03-26 23:16:00,
2013-03-26 19:20:00,58.6,37.2,30.34,NE,45,1.5,6.2,45,0.00,,,0.00,WUHU216HW,2013-03-26 23:20:00,
2013-03-26 19:22:00,58.4,37.0,30.35,ENE,68,2.0,6.2,45,0.00,,,0.00,WUHU216HW,2013-03-26 23:22:00,
2013-03-26 19:25:00,58.2,36.9,30.35,North,0,2.0,3.8,45,0.00,,,0.00,WUHU216HW,2013-03-26 23:25:00,
2013-03-26 19:28:00,57.9,37.1,30.35,North,10,4.1,7.6,46,0.00,,,0.00,WUHU216HW,2013-03-26 23:28:00,
2013-03-26 19:31:00,57.9,37.1,30.35,NE,41,3.8,7.6,46,0.00,,,0.00,WUHU216HW,2013-03-26 23:31:00,
2013-03-26 19:33:00,57.7,37.0,30.35,NNE,23,6.4,7.6,46,0.00,,,0.00,WUHU216HW,2013-03-26 23:33:00,
2013-03-26 19:34:00,57.7,37.0,30.35,NNE,23,6.4,7.6,46,0.00,,,0.00,WUHU216HW,2013-03-26 23:34:00,
2013-03-26 19:36:00,57.5,36.8,30.35,NNE,14,3.0,7.6,46,0.00,,,0.00,WUHU216HW,2013-03-26 23:36:00,
2013-03-26 19:38:00,57.3,37.2,30.35,NNE,23,0.0,6.4,47,0.00,,,0.00,WUHU216HW,2013-03-26 23:38:00,
2013-03-26 19:39:00,57.3,37.2,30.35,NNE,23,0.0,6.4,47,0.00,,,0.00,WUHU216HW,2013-03-26 23:39:00,
2013-03-26 19:41:00,57.3,37.2,30.35,NNE,23,5.3,6.4,47,0.00,,,0.00,WUHU216HW,2013-03-26 23:41:00,
2013-03-26 19:42:00,57.0,36.9,30.35,NE,45,3.5,6.4,47,0.00,,,0.00,WUHU216HW,2013-03-26 23:42:00,
2013-03-26 19:44:00,57.0,36.9,30.36,ENE,68,3.5,5.3,47,0.00,,,0.00,WUHU216HW,2013-03-26 23:44:00,
2013-03-26 19:47:00,57.0,36.9,30.36,North,0,0.0,5.3,47,0.00,,,0.00,WUHU216HW,2013-03-26 23:47:00,
2013-03-26 19:49:00,56.8,37.3,30.36,NNW,338,7.8,7.8,48,0.00,,,0.00,WUHU216HW,2013-03-26 23:49:00,
2013-03-26 19:50:00,56.8,37.3,30.36,NNW,338,7.8,7.8,48,0.00,,,0.00,WUHU216HW,2013-03-26 23:50:00,
2013-03-26 19:52:00,56.8,37.3,30.36,North,0,6.0,7.8,48,0.00,,,0.00,WUHU216HW,2013-03-26 23:52:00,
2013-03-26 19:54:00,56.8,37.3,30.36,NNE,23,4.0,7.8,48,0.00,,,0.00,WUHU216HW,2013-03-26 23:54:00,
2013-03-26 19:55:00,56.6,37.1,30.36,NNE,23,3.8,7.8,48,0.00,,,0.00,WUHU216HW,2013-03-26 23:55:00,
2013-03-26 19:57:00,56.4,36.9,30.36,NNE,23,2.6,7.8,48,0.00,,,0.00,WUHU216HW,2013-03-26 23:57:00,
2013-03-26 20:00:00,56.4,36.9,30.36,North,9,5.0,6.0,48,0.00,,,0.00,WUHU216HW,2013-03-27 00:00:00,
2013-03-26 20:01:00,56.4,36.9,30.36,North,9,5.0,6.0,48,0.00,,,0.00,WUHU216HW,2013-03-27 00:01:00,
2013-03-26 20:03:00,56.3,36.8,30.36,NE,45,5.3,6.0,48,0.00,,,0.00,WUHU216HW,2013-03-27 00:03:00,
2013-03-26 20:06:00,55.9,36.4,30.36,NNE,23,2.4,6.0,48,0.00,,,0.00,WUHU216HW,2013-03-27 00:06:00,
2013-03-26 20:07:00,55.9,36.4,30.36,NNE,23,3.1,6.0,48,0.00,,,0.00,WUHU216HW,2013-03-27 00:07:00,
2013-03-26 20:08:00,55.9,36.4,30.36,NNE,23,0.0,6.0,48,0.00,,,0.00,WUHU216HW,2013-03-27 00:08:00,
2013-03-26 20:11:00,55.7,36.8,30.36,NNW,338,3.3,5.3,49,0.00,,,0.00,WUHU216HW,2013-03-27 00:11:00,
2013-03-26 20:12:00,55.7,36.8,30.36,NNW,338,3.3,4.2,49,0.00,,,0.00,WUHU216HW,2013-03-27 00:12:00,
2013-03-26 20:13:00,55.7,36.8,30.36,NNW,338,3.3,4.2,49,0.00,,,0.00,WUHU216HW,2013-03-27 00:13:00,
2013-03-26 20:17:00,55.5,36.6,30.36,NE,45,0.0,3.5,49,0.00,,,0.00,WUHU216HW,2013-03-27 00:17:00,
2013-03-26 20:18:00,55.5,36.6,30.36,North,0,8.2,8.2,49,0.00,,,0.00,WUHU216HW,2013-03-27 00:18:00,
2013-03-26 20:19:00,55.5,36.6,30.36,North,0,8.2,8.2,49,0.00,,,0.00,WUHU216HW,2013-03-27 00:19:00,
2013-03-26 20:24:00,55.4,36.4,30.36,North,0,2.6,8.2,49,0.00,,,0.00,WUHU216HW,2013-03-27 00:24:00,
2013-03-26 20:25:00,55.2,36.3,30.36,North,0,1.9,8.2,49,0.00,,,0.00,WUHU216HW,2013-03-27 00:25:00,
2013-03-26 20:29:00,55.2,36.3,30.37,North,0,0.0,5.8,49,0.00,,,0.00,WUHU216HW,2013-03-27 00:29:00,
2013-03-26 20:30:00,55.2,36.8,30.37,North,0,0.0,2.6,50,0.00,,,0.00,WUHU216HW,2013-03-27 00:30:00,
2013-03-26 20:31:00,55.2,36.8,30.37,North,0,0.0,2.6,50,0.00,,,0.00,WUHU216HW,2013-03-27 00:31:00,
2013-03-26 20:34:00,55.2,36.8,30.37,North,0,3.8,4.2,50,0.00,,,0.00,WUHU216HW,2013-03-27 00:34:00,
2013-03-26 20:35:00,55.2,36.8,30.37,NE,45,2.4,4.2,50,0.00,,,0.00,WUHU216HW,2013-03-27 00:35:00,
2013-03-26 20:36:00,55.2,36.8,30.37,NE,45,2.4,4.2,50,0.00,,,0.00,WUHU216HW,2013-03-27 00:36:00,
2013-03-26 20:40:00,55.0,36.7,30.38,NE,45,3.1,6.2,50,0.00,,,0.00,WUHU216HW,2013-03-27 00:40:00,
2013-03-26 20:41:00,55.0,36.7,30.37,NE,37,2.4,6.2,50,0.00,,,0.00,WUHU216HW,2013-03-27 00:41:00,
2013-03-26 20:42:00,54.8,36.5,30.38,NE,45,4.0,6.2,50,0.00,,,0.00,WUHU216HW,2013-03-27 00:42:00,
2013-03-26 20:44:00,54.8,36.3,30.38,NNE,23,1.3,6.2,50,0.00,,,0.00,WUHU216HW,2013-03-27 00:44:00,
2013-03-26 20:47:00,54.6,36.3,30.38,North,0,2.0,6.2,50,0.00,,,0.00,WUHU216HW,2013-03-27 00:47:00,
2013-03-26 20:48:00,54.6,36.3,30.38,North,0,2.6,4.0,50,0.00,,,0.00,WUHU216HW,2013-03-27 00:48:00,
2013-03-26 20:50:00,54.6,36.3,30.38,North,5,2.9,4.6,50,0.00,,,0.00,WUHU216HW,2013-03-27 00:50:00,
2013-03-26 20:52:00,54.5,36.2,30.38,NNW,342,5.9,9.1,50,0.00,,,0.00,WUHU216HW,2013-03-27 00:52:00,
2013-03-26 20:53:00,54.5,36.2,30.38,NNW,342,5.9,9.1,50,0.00,,,0.00,WUHU216HW,2013-03-27 00:53:00,
2013-03-26 20:54:00,54.5,36.2,30.38,North,0,2.0,9.1,50,0.00,,,0.00,WUHU216HW,2013-03-27 00:54:00,
2013-03-26 20:56:00,54.3,36.0,30.38,North,0,2.9,9.1,50,0.00,,,0.00,WUHU216HW,2013-03-27 00:56:00,
2013-03-26 20:57:00,54.3,36.0,30.38,North,0,2.9,9.1,50,0.00,,,0.00,WUHU216HW,2013-03-27 00:57:00,
2013-03-26 20:59:00,54.3,36.0,30.38,North,0,1.1,9.1,50,0.00,,,0.00,WUHU216HW,2013-03-27 00:59:00,
2013-03-26 21:02:00,54.1,35.9,30.38,North,0,0.0,2.9,50,0.00,,,0.00,WUHU216HW,2013-03-27 01:02:00,
2013-03-26 21:03:00,54.1,35.9,30.38,NNE,23,3.1,3.1,51,0.00,,,0.00,WUHU216HW,2013-03-27 01:03:00,
2013-03-26 21:05:00,54.1,36.3,30.38,NNE,23,1.7,3.1,51,0.00,,,0.00,WUHU216HW,2013-03-27 01:05:00,
2013-03-26 21:07:00,53.9,36.2,30.38,NNE,23,3.3,3.3,51,0.00,,,0.00,WUHU216HW,2013-03-27 01:07:00,
2013-03-26 21:08:00,53.9,36.2,30.38,NNE,23,2.8,3.3,51,0.00,,,0.00,WUHU216HW,2013-03-27 01:08:00,
2013-03-26 21:10:00,53.7,36.0,30.38,NNE,23,3.5,3.5,51,0.00,,,0.00,WUHU216HW,2013-03-27 01:10:00,
2013-03-26 21:11:00,53.7,36.0,30.38,NNE,23,3.5,3.5,51,0.00,,,0.00,WUHU216HW,2013-03-27 01:11:00,
2013-03-26 21:12:00,53.7,36.0,30.38,NNW,338,4.0,4.0,51,0.00,,,0.00,WUHU216HW,2013-03-27 01:12:00,
2013-03-26 21:13:00,53.7,36.0,30.38,NNE,23,4.4,4.4,51,0.00,,,0.00,WUHU216HW,2013-03-27 01:13:00,
2013-03-26 21:16:00,53.6,36.0,30.38,NNE,23,1.6,4.4,51,0.00,,,0.00,WUHU216HW,2013-03-27 01:16:00,
2013-03-26 21:18:00,53.4,35.7,30.38,NW,315,3.1,4.4,51,0.00,,,0.00,WUHU216HW,2013-03-27 01:18:00,
2013-03-26 21:19:00,53.4,36.1,30.38,North,0,4.0,4.4,52,0.00,,,0.00,WUHU216HW,2013-03-27 01:19:00,
2013-03-26 21:21:00,53.4,36.1,30.38,North,0,4.0,4.4,52,0.00,,,0.00,WUHU216HW,2013-03-27 01:21:00,
2013-03-26 21:23:00,53.4,36.1,30.38,NNE,23,2.2,4.0,52,0.00,,,0.00,WUHU216HW,2013-03-27 01:23:00,
2013-03-26 21:25:00,53.4,36.1,30.38,NNE,23,1.3,4.0,52,0.00,,,0.00,WUHU216HW,2013-03-27 01:25:00,
2013-03-26 21:26:00,53.4,36.1,30.38,NNE,23,2.9,4.0,52,0.00,,,0.00,WUHU216HW,2013-03-27 01:26:00,
2013-03-26 21:29:00,53.2,36.0,30.38,NNE,23,0.6,4.0,52,0.00,,,0.00,WUHU216HW,2013-03-27 01:29:00,
2013-03-26 21:30:00,53.2,36.0,30.38,NNE,23,1.5,2.9,52,0.00,,,0.00,WUHU216HW,2013-03-27 01:30:00,
2013-03-26 21:31:00,53.2,36.0,30.38,North,0,1.5,2.9,52,0.00,,,0.00,WUHU216HW,2013-03-27 01:31:00,
2013-03-26 21:32:00,53.2,36.0,30.38,North,0,1.5,2.9,52,0.00,,,0.00,WUHU216HW,2013-03-27 01:32:00,
2013-03-26 21:34:00,53.2,36.0,30.38,NE,39,2.3,3.3,52,0.00,,,0.00,WUHU216HW,2013-03-27 01:34:00,
2013-03-26 21:35:00,53.2,36.0,30.38,NE,39,2.3,3.3,52,0.00,,,0.00,WUHU216HW,2013-03-27 01:35:00,
2013-03-26 21:36:00,53.2,36.0,30.39,NNE,23,0.0,3.3,52,0.00,,,0.00,WUHU216HW,2013-03-27 01:36:00,
2013-03-26 21:37:00,53.2,36.0,30.39,NNE,23,0.0,3.3,52,0.00,,,0.00,WUHU216HW,2013-03-27 01:37:00,
2013-03-26 21:40:00,53.0,36.3,30.39,NNE,23,0.6,3.3,53,0.00,,,0.00,WUHU216HW,2013-03-27 01:40:00,
2013-03-26 21:41:00,53.0,36.3,30.39,NNE,23,0.6,3.3,53,0.00,,,0.00,WUHU216HW,2013-03-27 01:41:00,
2013-03-26 21:42:00,53.0,36.3,30.39,NNE,23,0.6,3.3,53,0.00,,,0.00,WUHU216HW,2013-03-27 01:42:00,
2013-03-26 21:45:00,52.8,36.1,30.39,NNE,23,0.0,0.6,53,0.00,,,0.00,WUHU216HW,2013-03-27 01:45:00,
2013-03-26 21:47:00,52.8,36.1,30.39,NNE,23,1.5,1.5,53,0.00,,,0.00,WUHU216HW,2013-03-27 01:47:00,
2013-03-26 21:48:00,52.8,36.1,30.39,NNE,23,1.5,1.5,53,0.00,,,0.00,WUHU216HW,2013-03-27 01:48:00,
2013-03-26 21:51:00,52.8,36.1,30.39,NNE,23,0.0,1.5,53,0.00,,,0.00,WUHU216HW,2013-03-27 01:51:00,
2013-03-26 21:53:00,52.8,36.1,30.39,NNE,23,0.4,1.5,53,0.00,,,0.00,WUHU216HW,2013-03-27 01:53:00,
2013-03-26 21:54:00,52.8,36.1,30.39,NNE,23,0.0,1.5,53,0.00,,,0.00,WUHU216HW,2013-03-27 01:54:00,
2013-03-26 21:56:00,52.8,36.1,30.39,NNE,23,0.0,1.5,53,0.00,,,0.00,WUHU216HW,2013-03-27 01:56:00,
2013-03-26 21:59:00,52.7,36.4,30.40,NNE,23,0.0,0.4,54,0.00,,,0.00,WUHU216HW,2013-03-27 01:59:00,
2013-03-26 22:01:00,52.7,36.4,30.40,NNE,23,0.0,0.4,54,0.00,,,0.00,WUHU216HW,2013-03-27 02:01:00,
2013-03-26 22:02:00,52.7,36.4,30.40,NNE,23,0.0,0.4,54,0.00,,,0.00,WUHU216HW,2013-03-27 02:02:00,
2013-03-26 22:05:00,52.5,36.2,30.40,NNE,23,0.0,0.0,54,0.00,,,0.00,WUHU216HW,2013-03-27 02:05:00,
2013-03-26 22:07:00,52.5,36.2,30.40,NNE,23,0.0,0.0,54,0.00,,,0.00,WUHU216HW,2013-03-27 02:07:00,
2013-03-26 22:10:00,52.5,36.2,30.39,NNE,23,0.0,0.0,54,0.00,,,0.00,WUHU216HW,2013-03-27 02:10:00,
2013-03-26 22:12:00,52.5,36.7,30.40,NNE,23,0.0,0.0,55,0.00,,,0.00,WUHU216HW,2013-03-27 02:12:00,
2013-03-26 22:13:00,52.5,36.7,30.40,NNE,23,0.0,0.0,55,0.00,,,0.00,WUHU216HW,2013-03-27 02:13:00,
2013-03-26 22:15:00,52.3,36.5,30.40,NNE,23,0.0,0.0,55,0.00,,,0.00,WUHU216HW,2013-03-27 02:15:00,
2013-03-26 22:16:00,52.3,36.5,30.40,NNE,23,0.0,0.0,55,0.00,,,0.00,WUHU216HW,2013-03-27 02:16:00,
2013-03-26 22:17:00,52.3,36.5,30.40,NNE,23,0.0,0.0,55,0.00,,,0.00,WUHU216HW,2013-03-27 02:17:00,
2013-03-26 22:18:00,52.3,36.5,30.40,NNE,23,0.0,0.0,55,0.00,,,0.00,WUHU216HW,2013-03-27 02:18:00,
2013-03-26 22:21:00,52.3,36.5,30.40,NNE,23,0.0,0.0,55,0.00,,,0.00,WUHU216HW,2013-03-27 02:21:00,
2013-03-26 22:22:00,52.3,36.5,30.40,NNE,23,0.0,0.0,55,0.00,,,0.00,WUHU216HW,2013-03-27 02:22:00,
2013-03-26 22:23:00,52.1,36.3,30.40,NNE,23,0.0,0.0,55,0.00,,,0.00,WUHU216HW,2013-03-27 02:23:00,
2013-03-26 22:26:00,52.1,36.3,30.40,NNE,23,0.0,0.0,55,0.00,,,0.00,WUHU216HW,2013-03-27 02:26:00,
2013-03-26 22:27:00,51.9,36.2,30.40,NNE,23,0.0,0.0,55,0.00,,,0.00,WUHU216HW,2013-03-27 02:27:00,
2013-03-26 22:29:00,51.9,36.2,30.40,NNE,23,0.0,0.0,55,0.00,,,0.00,WUHU216HW,2013-03-27 02:29:00,
2013-03-26 22:31:00,51.9,36.6,30.40,NNE,23,0.0,0.0,56,0.00,,,0.00,WUHU216HW,2013-03-27 02:31:00,
2013-03-26 22:33:00,51.8,36.5,30.40,NNE,23,0.0,0.0,56,0.00,,,0.00,WUHU216HW,2013-03-27 02:33:00,
2013-03-26 22:34:00,51.8,36.5,30.40,NNE,23,0.0,0.0,56,0.00,,,0.00,WUHU216HW,2013-03-27 02:34:00,
2013-03-26 22:35:00,51.6,36.3,30.40,NNE,23,0.0,0.0,56,0.00,,,0.00,WUHU216HW,2013-03-27 02:35:00,
2013-03-26 22:37:00,51.6,36.3,30.40,NNE,23,0.0,0.0,56,0.00,,,0.00,WUHU216HW,2013-03-27 02:37:00,
2013-03-26 22:38:00,51.6,36.3,30.40,NNE,23,0.0,0.0,56,0.00,,,0.00,WUHU216HW,2013-03-27 02:38:00,
2013-03-26 22:39:00,51.6,36.3,30.40,NNE,23,0.0,0.0,56,0.00,,,0.00,WUHU216HW,2013-03-27 02:39:00,
2013-03-26 22:41:00,51.6,36.3,30.40,NNE,23,0.0,0.0,56,0.00,,,0.00,WUHU216HW,2013-03-27 02:41:00,
2013-03-26 22:42:00,51.6,36.3,30.40,NNE,23,0.6,0.6,56,0.00,,,0.00,WUHU216HW,2013-03-27 02:42:00,
2013-03-26 22:43:00,51.6,36.3,30.40,NNE,23,0.0,0.6,56,0.00,,,0.00,WUHU216HW,2013-03-27 02:43:00,
2013-03-26 22:44:00,51.6,36.3,30.40,NNE,23,0.0,0.6,56,0.00,,,0.00,WUHU216HW,2013-03-27 02:44:00,
2013-03-26 22:47:00,51.6,36.3,30.40,NNE,23,0.0,0.6,56,0.00,,,0.00,WUHU216HW,2013-03-27 02:47:00,
2013-03-26 22:48:00,51.4,36.1,30.40,NNE,23,0.0,0.6,56,0.00,,,0.00,WUHU216HW,2013-03-27 02:48:00,
2013-03-26 22:49:00,51.4,36.1,30.40,NNE,23,0.0,0.6,56,0.00,,,0.00,WUHU216HW,2013-03-27 02:49:00,
2013-03-26 22:50:00,51.4,36.1,30.40,NNE,23,0.0,0.6,56,0.00,,,0.00,WUHU216HW,2013-03-27 02:50:00,
2013-03-26 22:52:00,51.2,36.0,30.40,NNE,23,0.0,0.0,56,0.00,,,0.00,WUHU216HW,2013-03-27 02:52:00,
2013-03-26 22:53:00,51.2,36.0,30.40,NNE,23,0.0,0.0,56,0.00,,,0.00,WUHU216HW,2013-03-27 02:53:00,
2013-03-26 22:55:00,51.2,36.4,30.40,NNE,23,0.0,0.0,57,0.00,,,0.00,WUHU216HW,2013-03-27 02:55:00,
2013-03-26 22:58:00,51.0,36.3,30.40,NNE,23,0.0,0.0,57,0.00,,,0.00,WUHU216HW,2013-03-27 02:58:00,
2013-03-26 22:59:00,51.0,36.3,30.40,NNE,23,3.1,3.1,57,0.00,,,0.00,WUHU216HW,2013-03-27 02:59:00,
2013-03-26 23:00:00,51.0,36.3,30.40,NNE,23,3.1,3.1,57,0.00,,,0.00,WUHU216HW,2013-03-27 03:00:00,
2013-03-26 23:03:00,50.9,36.1,30.40,NNE,23,0.0,3.1,57,0.00,,,0.00,WUHU216HW,2013-03-27 03:03:00,
2013-03-26 23:05:00,50.9,36.1,30.40,NE,45,0.0,3.1,57,0.00,,,0.00,WUHU216HW,2013-03-27 03:05:00,
2013-03-26 23:06:00,50.9,36.1,30.40,NE,45,0.0,3.1,57,0.00,,,0.00,WUHU216HW,2013-03-27 03:06:00,
2013-03-26 23:08:00,50.7,35.9,30.41,North,0,3.3,3.3,57,0.00,,,0.00,WUHU216HW,2013-03-27 03:08:00,
2013-03-26 23:09:00,50.7,35.9,30.41,North,0,3.3,3.3,57,0.00,,,0.00,WUHU216HW,2013-03-27 03:09:00,
2013-03-26 23:10:00,50.7,35.9,30.40,NNE,23,1.1,3.3,57,0.00,,,0.00,WUHU216HW,2013-03-27 03:10:00,
2013-03-26 23:11:00,50.7,35.9,30.41,NNE,23,1.1,3.3,57,0.00,,,0.00,WUHU216HW,2013-03-27 03:11:00,
2013-03-26 23:15:00,50.7,35.9,30.41,NNE,23,2.0,3.3,57,0.00,,,0.00,WUHU216HW,2013-03-27 03:15:00,
2013-03-26 23:16:00,50.7,35.9,30.41,North,0,3.1,3.3,57,0.00,,,0.00,WUHU216HW,2013-03-27 03:16:00,
2013-03-26 23:17:00,50.7,35.9,30.41,North,0,0.0,3.3,57,0.00,,,0.00,WUHU216HW,2013-03-27 03:17:00,
2013-03-26 23:18:00,50.7,36.4,30.40,North,0,1.3,3.1,58,0.00,,,0.00,WUHU216HW,2013-03-27 03:18:00,
2013-03-26 23:20:00,50.7,36.4,30.41,NNE,23,1.3,3.1,58,0.00,,,0.00,WUHU216HW,2013-03-27 03:20:00,
2013-03-26 23:21:00,50.7,36.4,30.41,NNE,23,1.3,3.1,58,0.00,,,0.00,WUHU216HW,2013-03-27 03:21:00,
2013-03-26 23:22:00,50.7,36.4,30.41,NNE,23,0.0,3.1,58,0.00,,,0.00,WUHU216HW,2013-03-27 03:22:00,
2013-03-26 23:24:00,50.7,36.4,30.41,NNE,23,0.0,3.1,58,0.00,,,0.00,WUHU216HW,2013-03-27 03:24:00,
2013-03-26 23:25:00,50.7,36.4,30.41,NNE,23,0.0,1.3,58,0.00,,,0.00,WUHU216HW,2013-03-27 03:25:00,
2013-03-26 23:26:00,50.7,36.4,30.41,NNE,23,0.0,1.3,58,0.00,,,0.00,WUHU216HW,2013-03-27 03:26:00,
2013-03-26 23:28:00,50.7,36.4,30.41,NNE,23,0.0,1.3,58,0.00,,,0.00,WUHU216HW,2013-03-27 03:28:00,
2013-03-26 23:29:00,50.7,36.4,30.41,NNE,23,0.8,0.8,58,0.00,,,0.00,WUHU216HW,2013-03-27 03:29:00,
2013-03-26 23:31:00,50.7,36.4,30.41,NNE,23,1.5,1.5,58,0.00,,,0.00,WUHU216HW,2013-03-27 03:31:00,
2013-03-26 23:33:00,50.7,36.4,30.41,NNE,23,0.0,1.5,58,0.00,,,0.00,WUHU216HW,2013-03-27 03:33:00,
2013-03-26 23:34:00,50.7,36.4,30.41,NNE,23,0.0,1.5,58,0.00,,,0.00,WUHU216HW,2013-03-27 03:34:00,
2013-03-26 23:38:00,50.7,36.4,30.42,NNE,23,0.0,1.5,58,0.00,,,0.00,WUHU216HW,2013-03-27 03:38:00,
2013-03-26 23:39:00,50.7,36.4,30.42,NNE,23,1.1,1.5,58,0.00,,,0.00,WUHU216HW,2013-03-27 03:39:00,
2013-03-26 23:41:00,50.5,36.2,30.42,NNE,23,2.9,2.9,58,0.00,,,0.00,WUHU216HW,2013-03-27 03:41:00,
2013-03-26 23:43:00,50.5,36.2,30.42,NNE,23,0.0,2.9,58,0.00,,,0.00,WUHU216HW,2013-03-27 03:43:00,
2013-03-26 23:44:00,50.5,36.2,30.42,NNE,23,0.0,2.9,58,0.00,,,0.00,WUHU216HW,2013-03-27 03:44:00,
2013-03-26 23:46:00,50.3,36.1,30.41,NNE,23,0.0,2.9,58,0.00,,,0.00,WUHU216HW,2013-03-27 03:46:00,
2013-03-26 23:49:00,50.3,36.1,30.41,NNE,23,0.0,2.9,58,0.00,,,0.00,WUHU216HW,2013-03-27 03:49:00,
2013-03-26 23:50:00,50.1,36.3,30.41,NNE,23,2.0,2.0,59,0.00,,,0.00,WUHU216HW,2013-03-27 03:50:00,
2013-03-26 23:51:00,50.1,36.3,30.41,NNE,23,2.0,2.0,59,0.00,,,0.00,WUHU216HW,2013-03-27 03:51:00,
2013-03-26 23:55:00,50.1,36.3,30.41,NNE,23,0.0,2.0,59,0.00,,,0.00,WUHU216HW,2013-03-27 03:55:00,
2013-03-26 23:57:00,50.1,36.3,30.41,NE,45,3.3,3.3,59,0.00,,,0.00,WUHU216HW,2013-03-27 03:57:00,